FW7316 Weather Reports


Display with metric or nautical units.
time (UTC)temp
F
wind
direction
speed
MPH
gust
MPH
rain 1hr
in
rain 24hr
in
rain mn
in
humidity
%
barometer
mb
20260903143705 93 338 6.0 8.0 0.00 0.00 0.00 40 1015.9
20260903143604 93 323 4.0 8.0 0.00 0.00 0.00 40 1015.8
20260903143404 93 326 2.0 8.0 0.00 0.00 0.00 39 1015.9
20260903143305 93 293 1.0 8.0 0.00 0.00 0.00 41 1015.9
20260903143207 93 325 6.0 8.0 0.00 0.00 0.00 41 1015.9
20260903143104 93 348 7.0 8.0 0.00 0.00 0.00 40 1015.8
20260903143006 93 46 3.0 5.0 0.00 0.00 0.00 40 1015.8
20260903142908 93 327 3.0 5.0 0.00 0.00 0.00 40 1015.9
20260903142805 93 300 1.0 5.0 0.00 0.00 0.00 40 1015.9
20260903142705 93 198 1.0 5.0 0.00 0.00 0.00 41 1015.9
20260903142607 93 198 1.0 5.0 0.00 0.00 0.00 39 1015.9
20260903142404 93 198 2.0 5.0 0.00 0.00 0.00 40 1015.9
20260903142308 93 209 3.0 5.0 0.00 0.00 0.00 40 1015.9
20260903142204 93 242 3.0 7.0 0.00 0.00 0.00 39 1015.9
20260903142105 93 223 2.0 7.0 0.00 0.00 0.00 39 1016.0
20260903142009 92 10 0.0 7.0 0.00 0.00 0.00 39 1016.0
20260903141905 92 10 0.0 7.0 0.00 0.00 0.00 39 1016.0
20260903141805 92 5 2.0 7.0 0.00 0.00 0.00 39 1015.9
20260903141707 92 109 1.0 8.0 0.00 0.00 0.00 39 1016.0
20260903141605 92 89 1.0 8.0 0.00 0.00 0.00 40 1016.0
20260903141505 92 58 2.0 8.0 0.00 0.00 0.00 40 1016.0
20260903141407 92 71 4.0 8.0 0.00 0.00 0.00 39 1015.9
20260903141305 92 71 2.0 8.0 0.00 0.00 0.00 38 1015.9
20260903141205 92 60 5.0 8.0 0.00 0.00 0.00 40 1015.9
20260903141005 92 17 2.0 8.0 0.00 0.00 0.00 38 1016.0
20260903140904 92 39 2.0 8.0 0.00 0.00 0.00 42 1016.0
20260903140808 92 30 5.0 8.0 0.00 0.00 0.00 40 1016.0
20260903140704 92 28 7.0 8.0 0.00 0.00 0.00 40 1016.0
20260903140604 92 15 5.0 7.0 0.00 0.00 0.00 39 1016.0
20260903140507 92 309 2.0 7.0 0.00 0.00 0.00 41 1016.0
20260903140305 92 65 2.0 7.0 0.00 0.00 0.00 39 1016.0
20260903140207 92 346 1.0 7.0 0.00 0.00 0.00 39 1016.0
20260903140120 93 28 5.0 7.0 0.00 0.00 0.00 40 1016.0
20260903140008 92 30 6.0 7.0 0.00 0.00 0.00 40 1016.0
20260903135907 92 297 1.0 7.0 0.00 0.00 0.00 38 1016.0
20260903135805 93 292 3.0 8.0 0.00 0.00 0.00 40 1016.0
20260903135704 92 233 4.0 8.0 0.00 0.00 0.00 38 1016.0
20260903135505 92 329 3.0 8.0 0.00 0.00 0.00 40 1016.0
20260903135405 92 346 5.0 10.0 0.00 0.00 0.00 40 1016.0
20260903135205 92 75 2.0 10.0 0.00 0.00 0.00 38 1016.0
20260903135105 92 28 3.0 10.0 0.00 0.00 0.00 38 1016.0
20260903134905 92 317 4.0 10.0 0.00 0.00 0.00 40 1016.1
20260903134804 92 348 7.0 10.0 0.00 0.00 0.00 39 1016.0
20260903134707 92 298 3.0 10.0 0.00 0.00 0.00 39 1016.0
20260903134605 92 273 5.0 10.0 0.00 0.00 0.00 42 1016.1
20260903134506 92 325 6.0 10.0 0.00 0.00 0.00 42 1016.1
20260903134407 92 334 7.0 10.0 0.00 0.00 0.00 42 1016.1
20260903134305 91 360 7.0 8.0 0.00 0.00 0.00 41 1016.1
20260903134204 91 14 4.0 8.0 0.00 0.00 0.00 41 1016.1
20260903134108 91 313 1.0 8.0 0.00 0.00 0.00 41 1016.1
20260903133904 91 350 5.0 8.0 0.00 0.00 0.00 42 1016.1
20260903133807 91 114 1.0 8.0 0.00 0.00 0.00 40 1016.1
20260903133704 91 115 1.0 8.0 0.00 0.00 0.00 40 1016.1
20260903133606 91 129 3.0 8.0 0.00 0.00 0.00 41 1016.1
20260903133508 91 110 2.0 8.0 0.00 0.00 0.00 40 1016.1
20260903133305 91 69 5.0 11.0 0.00 0.00 0.00 41 1016.1
20260903133207 91 52 2.0 11.0 0.00 0.00 0.00 40 1016.1
20260903133105 91 37 5.0 11.0 0.00 0.00 0.00 41 1016.1
20260903133005 91 41 6.0 11.0 0.00 0.00 0.00 40 1016.0
20260903132805 91 28 3.0 11.0 0.00 0.00 0.00 41 1016.1
20260903132705 91 26 4.0 11.0 0.00 0.00 0.00 41 1016.1
20260903132608 92 77 5.0 11.0 0.00 0.00 0.00 39 1016.1
20260903132505 92 71 3.0 11.0 0.00 0.00 0.00 39 1016.1
20260903132404 92 50 8.0 11.0 0.00 0.00 0.00 38 1016.0
20260903132307 92 19 10.0 10.0 0.00 0.00 0.00 39 1016.1
20260903132204 92 24 6.0 7.0 0.00 0.00 0.00 41 1016.1
20260903132104 92 32 2.0 7.0 0.00 0.00 0.00 39 1016.1
20260903132010 92 64 3.0 9.0 0.00 0.00 0.00 39 1016.1
20260903131905 92 24 6.0 9.0 0.00 0.00 0.00 40 1016.2
20260903131805 92 15 6.0 9.0 0.00 0.00 0.00 40 1016.2
20260903131706 92 18 7.0 9.0 0.00 0.00 0.00 44 1016.2
20260903131605 92 52 0.0 9.0 0.00 0.00 0.00 41 1016.3
20260903131506 92 82 1.0 9.0 0.00 0.00 0.00 41 1016.2
20260903131407 92 40 2.0 9.0 0.00 0.00 0.00 41 1016.3
20260903131304 92 322 2.0 9.0 0.00 0.00 0.00 42 1016.3
20260903131006 91 349 7.0 9.0 0.00 0.00 0.00 44 1016.4
20260903130905 91 327 7.0 8.0 0.00 0.00 0.00 43 1016.3
20260903130807 91 348 7.0 8.0 0.00 0.00 0.00 42 1016.3
20260903130706 91 26 1.0 8.0 0.00 0.00 0.00 41 1016.3
20260903130609 91 26 1.0 9.0 0.00 0.00 0.00 43 1016.3
20260903130404 91 70 1.0 9.0 0.00 0.00 0.00 41 1016.3
20260903130304 91 88 3.0 9.0 0.00 0.00 0.00 42 1016.3
20260903130207 91 139 2.0 9.0 0.00 0.00 0.00 42 1016.3
20260903130104 91 22 3.0 9.0 0.00 0.00 0.00 42 1016.3
20260903130007 91 58 1.0 9.0 0.00 0.00 0.00 42 1016.2
20260903125907 91 71 8.0 9.0 0.00 0.00 0.00 45 1016.2
20260903125804 91 65 8.0 9.0 0.00 0.00 0.00 43 1016.2
20260903125704 91 76 7.0 9.0 0.00 0.00 0.00 43 1016.2
20260903125607 91 45 8.0 9.0 0.00 0.00 0.00 44 1016.2
20260903125505 91 355 6.0 9.0 0.00 0.00 0.00 44 1016.2
20260903125405 91 44 7.0 9.0 0.00 0.00 0.00 42 1016.2
20260903125307 91 31 5.0 9.0 0.00 0.00 0.00 42 1016.2
20260903125204 91 21 5.0 9.0 0.00 0.00 0.00 41 1016.2
20260903125104 91 48 2.0 9.0 0.00 0.00 0.00 41 1016.2
20260903124904 91 24 2.0 4.0 0.00 0.00 0.00 42 1016.2
20260903124804 91 78 1.0 4.0 0.00 0.00 0.00 40 1016.2
20260903124707 91 163 0.0 6.0 0.00 0.00 0.00 41 1016.2
20260903124604 91 176 2.0 7.0 0.00 0.00 0.00 42 1016.2
20260903124407 91 260 1.0 9.0 0.00 0.00 0.00 42 1016.2
20260903124304 91 240 2.0 9.0 0.00 0.00 0.00 41 1016.2
20260903124205 91 217 1.0 9.0 0.00 0.00 0.00 41 1016.3
20260903123705 91 327 3.0 9.0 0.00 0.00 0.00 43 1016.4
20260903123605 91 335 5.0 9.0 0.00 0.00 0.00 43 1016.4
20260903123507 91 355 7.0 9.0 0.00 0.00 0.00 43 1016.5
20260903123405 91 333 5.0 9.0 0.00 0.00 0.00 43 1016.5
20260903123305 91 302 7.0 12.0 0.00 0.00 0.00 44 1016.4
20260903123207 91 242 3.0 12.0 0.00 0.00 0.00 45 1016.5
20260903123104 91 22 4.0 12.0 0.00 0.00 0.00 42 1016.4
20260903123005 91 42 6.0 12.0 0.00 0.00 0.00 42 1016.5
20260903122907 91 14 7.0 12.0 0.00 0.00 0.00 42 1016.5
20260903122805 91 61 5.0 12.0 0.00 0.00 0.00 43 1016.5
20260903122704 91 36 1.0 12.0 0.00 0.00 0.00 44 1016.5
20260903122607 90 34 4.0 12.0 0.00 0.00 0.00 46 1016.6
20260903122504 90 19 6.0 12.0 0.00 0.00 0.00 45 1016.5
20260903122404 90 339 7.0 12.0 0.00 0.00 0.00 43 1016.6
20260903122205 90 344 3.0 9.0 0.00 0.00 0.00 43 1016.5
20260903122104 90 320 3.0 9.0 0.00 0.00 0.00 44 1016.5
20260903122010 90 57 3.0 9.0 0.00 0.00 0.00 43 1016.5
20260903121904 90 337 6.0 9.0 0.00 0.00 0.00 44 1016.5
20260903121804 90 9 2.0 10.0 0.00 0.00 0.00 43 1016.5
20260903121707 90 47 2.0 10.0 0.00 0.00 0.00 44 1016.6
20260903121605 90 325 5.0 10.0 0.00 0.00 0.00 43 1016.5
20260903121305 90 15 3.0 10.0 0.00 0.00 0.00 44 1016.5
20260903121204 90 78 3.0 10.0 0.00 0.00 0.00 44 1016.4
20260903121108 90 76 7.0 10.0 0.00 0.00 0.00 44 1016.5
20260903121005 90 19 4.0 10.0 0.00 0.00 0.00 45 1016.5
20260903120905 90 25 7.0 10.0 0.00 0.00 0.00 46 1016.4
20260903120807 90 17 5.0 8.0 0.00 0.00 0.00 46 1016.5
20260903120705 90 124 4.0 9.0 0.00 0.00 0.00 45 1016.5
20260903120606 90 303 5.0 9.0 0.00 0.00 0.00 45 1016.5
20260903120507 90 344 2.0 9.0 0.00 0.00 0.00 44 1016.4
20260903120404 90 262 2.0 9.0 0.00 0.00 0.00 44 1016.5
20260903120304 90 248 1.0 9.0 0.00 0.00 0.00 44 1016.5
20260903120208 90 251 3.0 9.0 0.00 0.00 0.00 43 1016.5
20260903120119 90 261 1.0 9.0 0.00 0.00 0.00 46 1016.5
20260903120007 90 261 1.0 9.0 0.00 0.00 0.00 46 1016.5
20260903115908 90 285 4.0 9.0 0.00 0.00 0.00 45 1016.5
20260903115804 90 266 6.0 9.0 0.00 0.00 0.00 46 1016.5
20260903115704 90 330 8.0 9.0 0.00 0.00 0.00 45 1016.4
20260903115404 90 224 1.0 9.0 0.00 0.00 0.00 44 1016.6
20260903115307 90 273 3.0 9.0 0.00 0.00 0.00 43 1016.6
20260903115205 90 326 3.0 9.0 0.00 0.00 0.00 45 1016.6
20260903115105 90 279 2.0 9.0 0.00 0.00 0.00 45 1016.6
20260903115011 90 296 3.0 9.0 0.00 0.00 0.00 44 1016.6
20260903114904 90 279 2.0 9.0 0.00 0.00 0.00 44 1016.6
20260903114707 90 333 4.0 7.0 0.00 0.00 0.00 45 1016.6
20260903114505 90 355 5.0 7.0 0.00 0.00 0.00 46 1016.7
20260903114407 90 327 7.0 7.0 0.00 0.00 0.00 45 1016.6
20260903114108 90 314 0.0 5.0 0.00 0.00 0.00 44 1016.6
20260903114009 90 240 0.0 8.0 0.00 0.00 0.00 46 1016.6
20260903113905 90 240 1.0 8.0 0.00 0.00 0.00 44 1016.6
20260903113807 90 277 2.0 8.0 0.00 0.00 0.00 44 1016.7
20260903113703 90 317 1.0 8.0 0.00 0.00 0.00 44 1016.7
20260903113604 90 54 1.0 8.0 0.00 0.00 0.00 43 1016.7
20260903113507 90 84 3.0 8.0 0.00 0.00 0.00 45 1016.7
20260903113305 90 5 3.0 8.0 0.00 0.00 0.00 45 1016.7
20260903113208 90 350 4.0 8.0 0.00 0.00 0.00 45 1016.7
20260903113104 90 340 3.0 8.0 0.00 0.00 0.00 48 1016.7
20260903113007 90 32 6.0 8.0 0.00 0.00 0.00 47 1016.7
20260903112907 89 355 4.0 8.0 0.00 0.00 0.00 47 1016.8
20260903112704 89 327 4.0 8.0 0.00 0.00 0.00 46 1016.7
20260903112607 89 288 4.0 8.0 0.00 0.00 0.00 47 1016.7
20260903112505 89 331 5.0 9.0 0.00 0.00 0.00 48 1016.8
20260903112404 89 341 6.0 9.0 0.00 0.00 0.00 49 1016.8
20260903112205 89 329 2.0 9.0 0.00 0.00 0.00 45 1016.8
20260903112106 89 241 4.0 9.0 0.00 0.00 0.00 45 1016.8
20260903112010 89 328 1.0 9.0 0.00 0.00 0.00 46 1016.8
20260903111904 89 273 3.0 9.0 0.00 0.00 0.00 47 1016.9
20260903111804 89 325 5.0 9.0 0.00 0.00 0.00 46 1016.9
20260903111707 89 298 7.0 9.0 0.00 0.00 0.00 46 1016.8
20260903111604 89 271 5.0 9.0 0.00 0.00 0.00 47 1016.8
20260903111505 88 350 6.0 9.0 0.00 0.00 0.00 49 1016.8
20260903111305 88 348 6.0 9.0 0.00 0.00 0.00 49 1016.9
20260903111205 88 30 1.0 10.0 0.00 0.00 0.00 46 1016.9
20260903111107 88 30 0.0 10.0 0.00 0.00 0.00 46 1016.9
20260903111006 88 30 0.0 11.0 0.00 0.00 0.00 46 1017.0
20260903110904 88 30 3.0 11.0 0.00 0.00 0.00 46 1017.0
20260903110808 88 34 5.0 11.0 0.00 0.00 0.00 45 1016.9
20260903110704 88 34 6.0 11.0 0.00 0.00 0.00 45 1016.9
20260903110507 89 24 4.0 11.0 0.00 0.00 0.00 45 1017.0
20260903110207 89 26 7.0 11.0 0.00 0.00 0.00 44 1017.0
20260903110105 89 41 7.0 11.0 0.00 0.00 0.00 45 1017.0
20260903110008 89 17 5.0 12.0 0.00 0.00 0.00 47 1017.1
20260903105907 89 30 8.0 12.0 0.00 0.00 0.00 46 1017.1
20260903105804 89 308 8.0 12.0 0.00 0.00 0.00 46 1017.1
20260903105705 89 5 5.0 12.0 0.00 0.00 0.00 48 1017.1
20260903105607 89 349 4.0 12.0 0.00 0.00 0.00 46 1017.2
20260903105505 89 360 3.0 12.0 0.00 0.00 0.00 47 1017.2
20260903105404 89 22 3.0 12.0 0.00 0.00 0.00 46 1017.2
20260903105307 89 346 3.0 12.0 0.00 0.00 0.00 47 1017.3
20260903105204 89 339 9.0 12.0 0.00 0.00 0.00 48 1017.2
20260903104904 89 355 8.0 10.0 0.00 0.00 0.00 49 1017.2
20260903104806 88 340 5.0 9.0 0.00 0.00 0.00 49 1017.3
20260903104706 88 314 4.0 9.0 0.00 0.00 0.00 49 1017.4
20260903104505 88 269 6.0 8.0 0.00 0.00 0.00 49 1017.3
20260903104406 88 320 6.0 7.0 0.00 0.00 0.00 50 1017.3
20260903104205 88 219 5.0 9.0 0.00 0.00 0.00 49 1017.3
20260903104107 88 327 3.0 9.0 0.00 0.00 0.00 49 1017.4
20260903104005 88 325 2.0 9.0 0.00 0.00 0.00 49 1017.4
20260903103904 88 325 5.0 9.0 0.00 0.00 0.00 50 1017.4
20260903103807 88 309 1.0 9.0 0.00 0.00 0.00 50 1017.4
20260903103605 88 360 1.0 9.0 0.00 0.00 0.00 48 1017.5
20260903103508 88 360 3.0 9.0 0.00 0.00 0.00 50 1017.5
20260903103404 88 332 6.0 9.0 0.00 0.00 0.00 50 1017.5
20260903103305 88 321 6.0 9.0 0.00 0.00 0.00 50 1017.5
20260903103207 88 308 2.0 8.0 0.00 0.00 0.00 53 1017.5
20260903103104 87 5 5.0 9.0 0.00 0.00 0.00 51 1017.5
20260903103005 87 316 5.0 10.0 0.00 0.00 0.00 51 1017.5
20260903102908 87 343 5.0 12.0 0.00 0.00 0.00 51 1017.6
20260903102705 87 271 3.0 12.0 0.00 0.00 0.00 51 1017.6
20260903102607 87 247 3.0 12.0 0.00 0.00 0.00 50 1017.6
20260903102505 88 288 1.0 12.0 0.00 0.00 0.00 52 1017.6
20260903102405 88 300 3.0 12.0 0.00 0.00 0.00 50 1017.6
20260903102307 88 287 6.0 12.0 0.00 0.00 0.00 51 1017.6
20260903102204 88 301 3.0 12.0 0.00 0.00 0.00 53 1017.7
20260903102105 88 316 9.0 12.0 0.00 0.00 0.00 52 1017.7
20260903102010 87 306 9.0 12.0 0.00 0.00 0.00 54 1017.7
20260903101904 87 298 8.0 12.0 0.00 0.00 0.00 51 1017.8
20260903101804 87 276 6.0 8.0 0.00 0.00 0.00 50 1017.7
20260903101604 87 259 0.0 9.0 0.00 0.00 0.00 50 1017.7
20260903101407 87 250 2.0 9.0 0.00 0.00 0.00 50 1017.7
20260903101305 87 263 0.0 9.0 0.00 0.00 0.00 50 1017.7
20260903101204 87 255 3.0 9.0 0.00 0.00 0.00 51 1017.8
20260903101107 87 289 3.0 9.0 0.00 0.00 0.00 51 1017.8
20260903101005 87 316 4.0 9.0 0.00 0.00 0.00 52 1017.9
20260903100904 87 313 4.0 9.0 0.00 0.00 0.00 52 1017.8
20260903100705 87 299 8.0 9.0 0.00 0.00 0.00 52 1017.8
20260903100604 87 11 2.0 7.0 0.00 0.00 0.00 54 1017.8
20260903100507 87 12 3.0 7.0 0.00 0.00 0.00 53 1017.8
20260903100305 87 263 2.0 8.0 0.00 0.00 0.00 52 1017.8
20260903100130 87 294 3.0 9.0 0.00 0.00 0.00 51 1017.8
20260903095704 87 293 3.0 9.0 0.00 0.00 0.00 53 1017.8
20260903095607 87 343 2.0 9.0 0.00 0.00 0.00 53 1017.8
20260903095504 87 320 5.0 9.0 0.00 0.00 0.00 53 1017.9
20260903095405 86 323 5.0 9.0 0.00 0.00 0.00 55 1017.9
20260903095307 86 333 8.0 9.0 0.00 0.00 0.00 55 1017.9
20260903095205 86 313 6.0 9.0 0.00 0.00 0.00 54 1017.8
20260903095104 86 345 8.0 9.0 0.00 0.00 0.00 54 1017.9
20260903095008 86 270 0.0 9.0 0.00 0.00 0.00 52 1017.8
20260903094804 86 267 3.0 9.0 0.00 0.00 0.00 52 1017.9
20260903094707 86 11 3.0 9.0 0.00 0.00 0.00 54 1017.9
20260903094604 86 322 5.0 9.0 0.00 0.00 0.00 54 1018.0
20260903094504 86 360 7.0 9.0 0.00 0.00 0.00 56 1018.0
20260903094407 86 331 3.0 9.0 0.00 0.00 0.00 54 1017.9
20260903094304 86 336 2.0 9.0 0.00 0.00 0.00 53 1018.0
20260903094204 86 265 2.0 9.0 0.00 0.00 0.00 54 1018.0
20260903094108 86 293 3.0 9.0 0.00 0.00 0.00 55 1018.0
20260903094006 86 303 4.0 9.0 0.00 0.00 0.00 56 1018.0
20260903093904 85 317 8.0 9.0 0.00 0.00 0.00 57 1018.0
20260903093807 85 313 4.0 9.0 0.00 0.00 0.00 56 1018.0
20260903093705 85 318 2.0 9.0 0.00 0.00 0.00 55 1018.0
20260903093604 85 333 1.0 9.0 0.00 0.00 0.00 55 1018.1
20260903093508 85 294 3.0 9.0 0.00 0.00 0.00 56 1018.1
20260903093404 85 337 2.0 9.0 0.00 0.00 0.00 55 1018.0
20260903093305 85 268 2.0 9.0 0.00 0.00 0.00 53 1018.0
20260903093105 86 251 3.0 9.0 0.00 0.00 0.00 54 1018.0
20260903092909 86 268 6.0 9.0 0.00 0.00 0.00 56 1018.0
20260903092805 85 310 4.0 9.0 0.00 0.00 0.00 57 1018.0
20260903092705 85 5 6.0 9.0 0.00 0.00 0.00 56 1018.1
20260903092607 85 341 4.0 9.0 0.00 0.00 0.00 56 1018.1
20260903092405 85 275 7.0 9.0 0.00 0.00 0.00 56 1018.0
20260903092307 85 270 4.0 8.0 0.00 0.00 0.00 56 1018.0
20260903092204 85 209 4.0 7.0 0.00 0.00 0.00 57 1018.1
20260903092105 85 333 2.0 8.0 0.00 0.00 0.00 57 1018.1
20260903092008 85 251 2.0 8.0 0.00 0.00 0.00 58 1018.1
20260903091905 85 338 3.0 8.0 0.00 0.00 0.00 57 1018.1
20260903091804 85 300 3.0 8.0 0.00 0.00 0.00 57 1018.2
20260903091504 85 311 1.0 8.0 0.00 0.00 0.00 57 1018.2
20260903091407 85 317 3.0 8.0 0.00 0.00 0.00 56 1018.2
20260903091304 85 306 5.0 8.0 0.00 0.00 0.00 56 1018.2
20260903091204 85 282 2.0 8.0 0.00 0.00 0.00 56 1018.2
20260903091108 85 293 5.0 8.0 0.00 0.00 0.00 58 1018.2
20260903091006 85 315 3.0 8.0 0.00 0.00 0.00 57 1018.1
20260903090904 85 331 3.0 8.0 0.00 0.00 0.00 57 1018.2
20260903090806 85 319 5.0 8.0 0.00 0.00 0.00 57 1018.1
20260903090605 84 310 5.0 8.0 0.00 0.00 0.00 56 1018.1
20260903090508 84 321 4.0 8.0 0.00 0.00 0.00 58 1018.2
20260903090404 84 290 4.0 8.0 0.00 0.00 0.00 56 1018.1
20260903090304 84 331 7.0 8.0 0.00 0.00 0.00 57 1018.1
20260903090206 84 323 6.0 7.0 0.00 0.00 0.00 57 1018.1
20260903090008 84 319 4.0 7.0 0.00 0.00 0.00 58 1018.1
20260903085908 84 34 6.0 7.0 0.00 0.00 0.00 58 1018.1
20260903085804 84 350 7.0 7.0 0.00 0.00 0.00 59 1018.2
20260903085704 84 336 3.0 7.0 0.00 0.00 0.00 59 1018.1
20260903085607 84 15 1.0 7.0 0.00 0.00 0.00 59 1018.1
20260903085505 84 308 4.0 7.0 0.00 0.00 0.00 59 1018.0
20260903085307 83 272 2.0 7.0 0.00 0.00 0.00 58 1018.1
20260903085205 83 279 3.0 7.0 0.00 0.00 0.00 59 1018.1
20260903085008 83 343 2.0 6.0 0.00 0.00 0.00 60 1018.1
20260903084904 83 360 5.0 6.0 0.00 0.00 0.00 61 1018.0
20260903084805 83 317 3.0 6.0 0.00 0.00 0.00 62 1018.0
20260903084605 83 277 4.0 6.0 0.00 0.00 0.00 61 1018.0
20260903084506 83 315 3.0 6.0 0.00 0.00 0.00 61 1018.0
20260903084407 82 264 1.0 6.0 0.00 0.00 0.00 61 1018.0
20260903084304 82 254 2.0 6.0 0.00 0.00 0.00 61 1018.0
20260903084204 82 219 2.0 6.0 0.00 0.00 0.00 61 1018.0
20260903084107 83 282 2.0 6.0 0.00 0.00 0.00 61 1018.0
20260903084005 82 274 2.0 7.0 0.00 0.00 0.00 61 1018.0
20260903083905 83 277 1.0 7.0 0.00 0.00 0.00 61 1018.0
20260903083705 83 247 2.0 7.0 0.00 0.00 0.00 61 1018.0
20260903083605 83 317 3.0 7.0 0.00 0.00 0.00 61 1018.0
20260903083507 83 273 4.0 7.0 0.00 0.00 0.00 62 1018.1
20260903083404 83 248 3.0 7.0 0.00 0.00 0.00 61 1018.1
20260903083306 83 281 2.0 7.0 0.00 0.00 0.00 60 1018.0
20260903083104 83 309 2.0 7.0 0.00 0.00 0.00 60 1018.0
20260903083005 83 294 6.0 7.0 0.00 0.00 0.00 61 1018.0
20260903082907 82 295 5.0 7.0 0.00 0.00 0.00 62 1018.0
20260903082805 82 315 6.0 8.0 0.00 0.00 0.00 62 1017.9
20260903082704 82 281 2.0 8.0 0.00 0.00 0.00 62 1018.0
20260903082607 82 320 2.0 8.0 0.00 0.00 0.00 62 1018.0
20260903082505 82 295 4.0 8.0 0.00 0.00 0.00 62 1018.0
20260903082404 82 306 5.0 8.0 0.00 0.00 0.00 62 1017.9
20260903082307 82 340 4.0 8.0 0.00 0.00 0.00 61 1018.0
20260903082204 82 341 5.0 8.0 0.00 0.00 0.00 62 1017.9
20260903082104 82 321 3.0 8.0 0.00 0.00 0.00 62 1018.0
20260903081906 82 360 4.0 8.0 0.00 0.00 0.00 63 1018.0
20260903081707 82 318 8.0 8.0 0.00 0.00 0.00 63 1018.0
20260903081604 81 48 0.0 7.0 0.00 0.00 0.00 62 1017.9
20260903081505 81 329 2.0 7.0 0.00 0.00 0.00 62 1018.0
20260903081407 81 202 1.0 7.0 0.00 0.00 0.00 63 1017.9
20260903081304 81 285 2.0 7.0 0.00 0.00 0.00 63 1017.9
20260903081204 81 349 4.0 7.0 0.00 0.00 0.00 64 1018.0
20260903081107 81 350 7.0 7.0 0.00 0.00 0.00 63 1017.9
20260903081005 81 273 4.0 7.0 0.00 0.00 0.00 64 1017.8
20260903080807 81 229 1.0 7.0 0.00 0.00 0.00 64 1017.8
20260903080704 81 283 2.0 7.0 0.00 0.00 0.00 63 1017.8
20260903080605 81 260 1.0 7.0 0.00 0.00 0.00 63 1017.9
20260903080507 81 140 1.0 7.0 0.00 0.00 0.00 63 1017.9
20260903080207 81 278 4.0 7.0 0.00 0.00 0.00 64 1017.8
20260903080119 81 273 4.0 7.0 0.00 0.00 0.00 63 1017.9
20260903080008 81 300 5.0 7.0 0.00 0.00 0.00 63 1017.8
20260903075906 81 272 4.0 7.0 0.00 0.00 0.00 65 1017.8
20260903075704 81 317 7.0 7.0 0.00 0.00 0.00 65 1017.8
20260903075607 81 322 4.0 7.0 0.00 0.00 0.00 65 1017.8
20260903075505 81 323 5.0 7.0 0.00 0.00 0.00 65 1017.8
20260903075404 81 326 5.0 7.0 0.00 0.00 0.00 65 1017.8
20260903075104 80 263 3.0 7.0 0.00 0.00 0.00 65 1017.8
20260903075007 80 284 1.0 7.0 0.00 0.00 0.00 66 1017.8
20260903074904 80 344 3.0 7.0 0.00 0.00 0.00 66 1017.9
20260903074805 80 312 6.0 7.0 0.00 0.00 0.00 66 1017.8
20260903074707 80 295 1.0 7.0 0.00 0.00 0.00 66 1017.8
20260903074604 80 333 5.0 7.0 0.00 0.00 0.00 67 1017.8
20260903074504 80 323 3.0 7.0 0.00 0.00 0.00 66 1017.8
20260903074407 80 331 2.0 7.0 0.00 0.00 0.00 65 1017.8
20260903074305 80 288 4.0 7.0 0.00 0.00 0.00 65 1017.7
20260903074205 80 296 3.0 7.0 0.00 0.00 0.00 66 1017.7
20260903074107 80 290 4.0 7.0 0.00 0.00 0.00 66 1017.7
20260903074005 80 313 4.0 7.0 0.00 0.00 0.00 67 1017.7
20260903073904 80 331 3.0 7.0 0.00 0.00 0.00 67 1017.7
20260903073806 80 311 4.0 7.0 0.00 0.00 0.00 67 1017.7
20260903073704 79 325 7.0 8.0 0.00 0.00 0.00 68 1017.7
20260903073605 79 338 4.0 8.0 0.00 0.00 0.00 68 1017.7
20260903073507 79 350 4.0 8.0 0.00 0.00 0.00 68 1017.7
20260903073404 79 336 5.0 8.0 0.00 0.00 0.00 68 1017.7
20260903073305 79 294 2.0 8.0 0.00 0.00 0.00 67 1017.8
20260903073207 79 294 7.0 8.0 0.00 0.00 0.00 67 1017.8
20260903073105 79 338 4.0 8.0 0.00 0.00 0.00 68 1017.7
20260903073006 79 284 4.0 8.0 0.00 0.00 0.00 68 1017.7
20260903072907 79 288 4.0 8.0 0.00 0.00 0.00 69 1017.7
20260903072804 78 285 3.0 8.0 0.00 0.00 0.00 69 1017.7
20260903072607 78 273 2.0 7.0 0.00 0.00 0.00 69 1017.7
20260903072404 78 286 2.0 7.0 0.00 0.00 0.00 69 1017.6
20260903072204 78 276 2.0 7.0 0.00 0.00 0.00 70 1017.7
20260903072105 77 256 6.0 7.0 0.00 0.00 0.00 70 1017.7
20260903072007 77 272 3.0 7.0 0.00 0.00 0.00 70 1017.7
20260903071804 77 309 5.0 7.0 0.00 0.00 0.00 70 1017.7
20260903071707 77 271 5.0 7.0 0.00 0.00 0.00 70 1017.6
20260903071605 77 264 5.0 7.0 0.00 0.00 0.00 70 1017.6
20260903071505 77 279 4.0 7.0 0.00 0.00 0.00 70 1017.6
20260903071407 77 305 4.0 7.0 0.00 0.00 0.00 70 1017.6
20260903071304 77 276 3.0 7.0 0.00 0.00 0.00 71 1017.7
20260903071107 77 298 7.0 7.0 0.00 0.00 0.00 71 1017.7
20260903070904 76 328 2.0 7.0 0.00 0.00 0.00 71 1017.6
20260903070705 76 273 2.0 5.0 0.00 0.00 0.00 72 1017.7
20260903070604 76 205 3.0 5.0 0.00 0.00 0.00 73 1017.7
20260903070507 76 284 2.0 5.0 0.00 0.00 0.00 73 1017.7
20260903070405 76 291 4.0 5.0 0.00 0.00 0.00 72 1017.7
20260903070208 76 273 4.0 5.0 0.00 0.00 0.00 72 1017.7
20260903070105 76 305 4.0 5.0 0.00 0.00 0.00 73 1017.7
20260903070008 76 255 4.0 5.0 0.00 0.00 0.00 74 1017.7
20260903065907 76 257 3.0 5.0 0.00 0.00 0.00 73 1017.7
20260903065804 76 232 2.0 5.0 0.00 0.00 0.00 74 1017.7
20260903065704 75 288 4.0 5.0 0.00 0.00 0.00 74 1017.7
20260903065607 75 293 4.0 5.0 0.00 0.00 0.00 74 1017.6
20260903065505 75 282 2.0 5.0 0.00 0.00 0.00 75 1017.7
20260903065404 75 243 2.0 5.0 0.00 0.00 0.00 76 1017.6
20260903065307 75 325 3.0 5.0 0.00 0.00 0.00 76 1017.6
20260903065104 74 261 3.0 4.0 0.00 0.00 0.00 76 1017.6
20260903065008 74 248 3.0 4.0 0.00 0.00 0.00 76 1017.6
20260903064904 74 238 1.0 4.0 0.00 0.00 0.00 77 1017.6
20260903064805 74 265 2.0 4.0 0.00 0.00 0.00 77 1017.6
20260903064707 74 261 3.0 4.0 0.00 0.00 0.00 78 1017.6
20260903064605 74 298 2.0 4.0 0.00 0.00 0.00 78 1017.5
20260903064504 73 290 4.0 4.0 0.00 0.00 0.00 78 1017.5
20260903064407 73 274 2.0 4.0 0.00 0.00 0.00 78 1017.5
20260903064304 73 255 3.0 4.0 0.00 0.00 0.00 78 1017.5
20260903064204 73 265 2.0 4.0 0.00 0.00 0.00 79 1017.5
20260903064108 73 266 1.0 4.0 0.00 0.00 0.00 79 1017.5
20260903063905 72 285 3.0 4.0 0.00 0.00 0.00 80 1017.5
20260903063807 72 267 2.0 5.0 0.00 0.00 0.00 80 1017.5
20260903063705 72 308 2.0 5.0 0.00 0.00 0.00 81 1017.5
20260903063604 72 261 4.0 7.0 0.00 0.00 0.00 81 1017.5
20260903063507 72 275 2.0 7.0 0.00 0.00 0.00 81 1017.5
20260903063404 71 238 2.0 7.0 0.00 0.00 0.00 82 1017.5
20260903063304 71 255 2.0 7.0 0.00 0.00 0.00 82 1017.5
20260903063207 71 268 3.0 7.0 0.00 0.00 0.00 83 1017.6
20260903063104 71 266 1.0 7.0 0.00 0.00 0.00 84 1017.6
20260903063005 71 269 2.0 7.0 0.00 0.00 0.00 84 1017.5
20260903062907 70 283 2.0 7.0 0.00 0.00 0.00 84 1017.6
20260903062805 70 277 3.0 7.0 0.00 0.00 0.00 85 1017.6
20260903062707 70 283 4.0 7.0 0.00 0.00 0.00 86 1017.6
20260903062608 70 289 4.0 6.0 0.00 0.00 0.00 86 1017.6
20260903062505 70 290 4.0 5.0 0.00 0.00 0.00 87 1017.6
20260903062204 69 290 4.0 5.0 0.00 0.00 0.00 89 1017.5
20260903062105 68 283 4.0 5.0 0.00 0.00 0.00 90 1017.6
20260903062008 68 298 2.0 5.0 0.00 0.00 0.00 90 1017.6
20260903061905 68 271 2.0 5.0 0.00 0.00 0.00 91 1017.6
20260903061707 68 292 3.0 5.0 0.00 0.00 0.00 92 1017.6
20260903061604 67 173 2.0 3.0 0.00 0.00 0.00 92 1017.5
20260903061407 67 173 0.0 0.0 0.00 0.00 0.00 92 1017.6
20260903061305 67 173 0.0 0.0 0.00 0.00 0.00 93 1017.6
20260903061206 67 173 0.0 0.0 0.00 0.00 0.00 93 1017.6
20260903061108 67 173 0.0 0.0 0.00 0.00 0.00 93 1017.6
20260903061005 66 173 0.0 0.0 0.00 0.00 0.00 93 1017.5
20260903060905 66 173 0.0 0.0 0.00 0.00 0.00 93 1017.5
20260903060807 66 173 0.0 0.0 0.00 0.00 0.00 93 1017.5
20260903060704 66 173 0.0 0.0 0.00 0.00 0.00 93 1017.5
20260903060604 66 173 0.0 0.0 0.00 0.00 0.00 93 1017.5
20260903060405 65 173 0.0 0.0 0.00 0.00 0.00 94 1017.5
20260903060304 65 173 0.0 0.0 0.00 0.00 0.00 94 1017.5
20260903060207 65 173 0.0 0.0 0.00 0.00 0.00 94 1017.4
20260903060117 65 173 0.0 0.0 0.00 0.00 0.00 94 1017.5
20260903060007 65 173 0.0 0.0 0.00 0.00 0.00 94 1017.4
20260903055907 65 173 0.0 0.0 0.00 0.00 0.00 94 1017.5
20260903055805 65 173 0.0 0.0 0.00 0.00 0.00 94 1017.4
20260903055704 65 173 0.0 0.0 0.00 0.00 0.00 94 1017.4
20260903055607 64 173 0.0 0.0 0.00 0.00 0.00 94 1017.4
20260903055506 64 173 0.0 0.0 0.00 0.00 0.00 94 1017.4
20260903055405 64 173 0.0 0.0 0.00 0.00 0.00 94 1017.4
20260903055307 64 173 0.0 0.0 0.00 0.00 0.00 94 1017.3
20260903055204 64 173 0.0 0.0 0.00 0.00 0.00 94 1017.4
20260903055104 64 173 0.0 0.0 0.00 0.00 0.00 94 1017.3
20260903054706 64 173 0.0 0.0 0.00 0.00 0.00 94 1017.4
20260903054604 64 173 0.0 0.0 0.00 0.00 0.00 94 1017.3
20260903054304 63 173 0.0 0.0 0.00 0.00 0.00 94 1017.3
20260903054204 63 173 0.0 0.0 0.00 0.00 0.00 95 1017.3
20260903054107 63 173 0.0 0.0 0.00 0.00 0.00 95 1017.3
20260903054005 63 173 0.0 0.0 0.00 0.00 0.00 95 1017.3
20260903053905 63 173 0.0 0.0 0.00 0.00 0.00 95 1017.3
20260903053806 63 173 0.0 0.0 0.00 0.00 0.00 95 1017.3
20260903053605 63 173 0.0 0.0 0.00 0.00 0.00 95 1017.3
20260903053507 63 173 0.0 0.0 0.00 0.00 0.00 95 1017.3
20260903053305 62 173 0.0 0.0 0.00 0.00 0.00 95 1017.3
20260903053208 62 173 0.0 0.0 0.00 0.00 0.00 95 1017.3
20260903053104 62 173 0.0 0.0 0.00 0.00 0.00 95 1017.3
20260903053006 62 173 0.0 0.0 0.00 0.00 0.00 94 1017.3
20260903052907 62 173 0.0 0.0 0.00 0.00 0.00 94 1017.3
20260903052804 62 173 0.0 0.0 0.00 0.00 0.00 94 1017.2
20260903052704 62 173 0.0 0.0 0.00 0.00 0.00 94 1017.2
20260903052607 62 173 0.0 0.0 0.00 0.00 0.00 94 1017.2
20260903052504 62 173 0.0 0.0 0.00 0.00 0.00 94 1017.1
20260903052404 62 173 0.0 0.0 0.00 0.00 0.00 94 1017.1
20260903052205 62 173 0.0 0.0 0.00 0.00 0.00 94 1017.1
20260903052104 62 173 0.0 0.0 0.00 0.00 0.00 94 1017.2
20260903052007 61 173 0.0 0.0 0.00 0.00 0.00 94 1017.1
20260903051708 61 173 0.0 0.0 0.00 0.00 0.00 94 1017.1
20260903051407 61 173 0.0 0.0 0.00 0.00 0.00 94 1017.1
20260903051304 61 173 0.0 0.0 0.00 0.00 0.00 94 1017.1
20260903051204 61 173 0.0 0.0 0.00 0.00 0.00 94 1017.1
20260903051107 61 173 0.0 0.0 0.00 0.00 0.00 94 1017.1
20260903051005 61 173 0.0 0.0 0.00 0.00 0.00 94 1017.0
20260903050904 61 173 0.0 0.0 0.00 0.00 0.00 94 1017.0
20260903050808 61 173 0.0 1.0 0.00 0.00 0.00 94 1017.0
20260903050704 61 173 0.0 1.0 0.00 0.00 0.00 94 1017.0
20260903050605 61 173 0.0 1.0 0.00 0.00 0.00 94 1017.0
20260903050507 61 173 0.0 1.0 0.00 0.00 0.00 94 1017.0
20260903050404 61 173 0.0 1.0 0.00 0.00 0.00 94 1017.0
20260903050305 61 173 0.0 1.0 0.00 0.00 0.00 94 1017.0
20260903050007 61 173 0.0 1.0 0.00 0.00 0.00 94 1016.9
20260903045907 61 173 0.0 1.0 0.00 0.00 0.00 94 1016.9
20260903045805 61 173 0.0 1.0 0.00 0.00 0.00 94 1016.9
20260903045706 61 173 0.0 1.0 0.00 0.00 0.00 93 1016.9
20260903045607 61 173 0.0 1.0 0.00 0.00 0.00 93 1016.9
20260903045404 61 173 0.0 2.0 0.00 0.00 0.00 93 1016.8
20260903045307 61 173 0.0 2.0 0.00 0.00 0.00 94 1016.8
20260903045204 61 173 0.0 2.0 0.00 0.00 0.00 93 1016.8
20260903045105 61 173 0.0 2.0 0.00 0.00 0.00 93 1016.8
20260903045009 61 173 0.0 2.0 0.00 0.00 0.00 94 1016.8
20260903044904 61 173 0.0 2.0 0.00 0.00 0.00 93 1016.8
20260903044804 61 173 0.0 2.0 0.00 0.00 0.00 93 1016.8
20260903044605 61 173 1.0 2.0 0.00 0.00 0.00 93 1016.8
20260903044505 61 173 1.0 2.0 0.00 0.00 0.00 93 1016.8
20260903044407 61 173 1.0 2.0 0.00 0.00 0.00 93 1016.7
20260903044305 61 173 1.0 2.0 0.00 0.00 0.00 93 1016.7
20260903044204 61 173 1.0 2.0 0.00 0.00 0.00 93 1016.7
20260903044005 61 173 0.0 2.0 0.00 0.00 0.00 93 1016.7
20260903043808 61 173 1.0 2.0 0.00 0.00 0.00 93 1016.7
20260903043604 61 173 0.0 2.0 0.00 0.00 0.00 93 1016.7
20260903043405 61 173 1.0 2.0 0.00 0.00 0.00 94 1016.7
20260903043304 61 173 1.0 2.0 0.00 0.00 0.00 93 1016.6
20260903043005 61 173 1.0 2.0 0.00 0.00 0.00 94 1016.6
20260903042805 61 173 1.0 2.0 0.00 0.00 0.00 94 1016.6
20260903042706 61 173 1.0 2.0 0.00 0.00 0.00 93 1016.6
20260903042607 61 173 1.0 2.0 0.00 0.00 0.00 93 1016.6
20260903042505 61 173 1.0 2.0 0.00 0.00 0.00 93 1016.6
20260903042404 61 173 1.0 2.0 0.00 0.00 0.00 93 1016.5
20260903042204 61 173 1.0 2.0 0.00 0.00 0.00 93 1016.5
20260903042104 61 173 1.0 2.0 0.00 0.00 0.00 94 1016.5
20260903042009 61 173 1.0 2.0 0.00 0.00 0.00 94 1016.5
20260903041904 61 173 1.0 2.0 0.00 0.00 0.00 93 1016.5
20260903041806 61 173 1.0 2.0 0.00 0.00 0.00 93 1016.5
20260903041708 61 173 2.0 2.0 0.00 0.00 0.00 93 1016.5
20260903041604 61 173 1.0 2.0 0.00 0.00 0.00 93 1016.4
20260903041505 61 173 1.0 2.0 0.00 0.00 0.00 93 1016.4
20260903041408 61 173 1.0 2.0 0.00 0.00 0.00 93 1016.4
20260903041204 61 173 1.0 2.0 0.00 0.00 0.00 93 1016.4
20260903041108 61 173 2.0 2.0 0.00 0.00 0.00 93 1016.3
20260903041005 61 173 2.0 2.0 0.00 0.00 0.00 93 1016.4
20260903040903 61 173 1.0 2.0 0.00 0.00 0.00 93 1016.3
20260903040704 61 173 1.0 2.0 0.00 0.00 0.00 93 1016.3
20260903040604 61 173 0.0 2.0 0.00 0.00 0.00 93 1016.4
20260903040508 61 173 1.0 2.0 0.00 0.00 0.00 93 1016.3
20260903040404 61 173 1.0 2.0 0.00 0.00 0.00 93 1016.3
20260903040304 61 173 1.0 2.0 0.00 0.00 0.00 93 1016.3
20260903040208 61 173 1.0 2.0 0.00 0.00 0.00 93 1016.4
20260903040009 61 173 1.0 2.0 0.00 0.00 0.00 93 1016.4
20260903035906 61 173 0.0 2.0 0.00 0.00 0.00 93 1016.4
20260903035804 61 173 1.0 2.0 0.00 0.00 0.00 93 1016.4
20260903035704 61 173 1.0 2.0 0.00 0.00 0.00 93 1016.4
20260903035607 61 173 0.0 1.0 0.00 0.00 0.00 93 1016.4
20260903035504 61 173 0.0 1.0 0.00 0.00 0.00 93 1016.4
20260903035307 61 173 0.0 1.0 0.00 0.00 0.00 93 1016.4
20260903035204 62 173 0.0 1.0 0.00 0.00 0.00 93 1016.5
20260903035104 62 173 0.0 1.0 0.00 0.00 0.00 93 1016.4
20260903035009 62 173 0.0 1.0 0.00 0.00 0.00 93 1016.4
20260903034905 62 173 0.0 1.0 0.00 0.00 0.00 93 1016.4
20260903034804 62 173 0.0 1.0 0.00 0.00 0.00 93 1016.4
20260903034604 62 173 0.0 1.0 0.00 0.00 0.00 93 1016.4
20260903034505 62 173 0.0 1.0 0.00 0.00 0.00 93 1016.5
20260903034408 62 173 0.0 0.0 0.00 0.00 0.00 93 1016.4
20260903034304 62 173 0.0 0.0 0.00 0.00 0.00 93 1016.4
20260903034204 62 173 0.0 0.0 0.00 0.00 0.00 93 1016.5
20260903034106 62 173 0.0 0.0 0.00 0.00 0.00 93 1016.5
20260903034006 62 173 0.0 1.0 0.00 0.00 0.00 93 1016.4
20260903033904 62 173 0.0 1.0 0.00 0.00 0.00 93 1016.4
20260903033807 62 173 0.0 2.0 0.00 0.00 0.00 93 1016.4
20260903033705 62 173 0.0 2.0 0.00 0.00 0.00 93 1016.3
20260903033604 62 173 0.0 2.0 0.00 0.00 0.00 93 1016.3
20260903033507 62 173 0.0 2.0 0.00 0.00 0.00 93 1016.4
20260903033305 62 173 0.0 2.0 0.00 0.00 0.00 93 1016.3
20260903033208 62 173 0.0 2.0 0.00 0.00 0.00 93 1016.3
20260903033105 62 173 0.0 2.0 0.00 0.00 0.00 93 1016.3
20260903033006 62 173 0.0 2.0 0.00 0.00 0.00 93 1016.3
20260903032906 62 173 1.0 2.0 0.00 0.00 0.00 93 1016.3
20260903032804 62 173 1.0 2.0 0.00 0.00 0.00 93 1016.3
20260903032704 62 173 1.0 2.0 0.00 0.00 0.00 93 1016.4
20260903032609 62 173 2.0 2.0 0.00 0.00 0.00 93 1016.4
20260903032504 62 173 1.0 2.0 0.00 0.00 0.00 93 1016.4
20260903032404 62 173 1.0 3.0 0.00 0.00 0.00 93 1016.3
20260903032307 62 173 1.0 3.0 0.00 0.00 0.00 93 1016.4
20260903032204 62 173 1.0 3.0 0.00 0.00 0.00 93 1016.4
20260903032105 62 173 1.0 3.0 0.00 0.00 0.00 93 1016.3
20260903031904 62 173 1.0 3.0 0.00 0.00 0.00 93 1016.3
20260903031804 62 173 2.0 4.0 0.00 0.00 0.00 93 1016.3
20260903031707 62 173 1.0 4.0 0.00 0.00 0.00 93 1016.3
20260903031604 62 173 2.0 4.0 0.00 0.00 0.00 93 1016.3
20260903031505 62 173 2.0 4.0 0.00 0.00 0.00 93 1016.2
20260903031407 62 173 2.0 4.0 0.00 0.00 0.00 93 1016.2
20260903031304 62 173 2.0 4.0 0.00 0.00 0.00 93 1016.3
20260903031204 62 173 2.0 4.0 0.00 0.00 0.00 93 1016.3
20260903031107 62 173 3.0 4.0 0.00 0.00 0.00 93 1016.2
20260903031005 62 173 3.0 4.0 0.00 0.00 0.00 93 1016.3
20260903030905 62 173 3.0 4.0 0.00 0.00 0.00 93 1016.3
20260903030808 62 173 3.0 4.0 0.00 0.00 0.00 93 1016.3
20260903030704 62 173 4.0 4.0 0.00 0.00 0.00 93 1016.3
20260903030507 62 173 3.0 4.0 0.00 0.00 0.00 92 1016.3
20260903030403 62 173 4.0 4.0 0.00 0.00 0.00 92 1016.3
20260903030206 62 173 4.0 4.0 0.00 0.00 0.00 92 1016.3
20260903030007 62 173 2.0 3.0 0.00 0.00 0.00 92 1016.3
20260903025908 62 173 1.0 3.0 0.00 0.00 0.00 92 1016.4
20260903025804 62 173 1.0 3.0 0.00 0.00 0.00 92 1016.4
20260903025704 62 173 1.0 3.0 0.00 0.00 0.00 92 1016.3
20260903025607 62 173 1.0 3.0 0.00 0.00 0.00 92 1016.3
20260903025504 62 173 2.0 3.0 0.00 0.00 0.00 92 1016.4
20260903025405 62 173 2.0 2.0 0.00 0.00 0.00 92 1016.3
20260903025307 62 173 1.0 2.0 0.00 0.00 0.00 92 1016.4
20260903025203 62 173 1.0 2.0 0.00 0.00 0.00 92 1016.4
20260903025009 62 173 1.0 3.0 0.00 0.00 0.00 92 1016.4
20260903024904 62 173 1.0 3.0 0.00 0.00 0.00 92 1016.3
20260903024804 62 173 1.0 3.0 0.00 0.00 0.00 92 1016.4
20260903024707 62 173 1.0 3.0 0.00 0.00 0.00 92 1016.4
20260903024604 62 173 0.0 3.0 0.00 0.00 0.00 92 1016.4
20260903024406 62 173 1.0 3.0 0.00 0.00 0.00 92 1016.3
20260903024304 62 173 1.0 3.0 0.00 0.00 0.00 92 1016.4
20260903024204 62 173 1.0 3.0 0.00 0.00 0.00 92 1016.4
20260903024106 62 173 2.0 3.0 0.00 0.00 0.00 92 1016.4
20260903024004 62 173 2.0 3.0 0.00 0.00 0.00 92 1016.4
20260903023807 62 173 0.0 3.0 0.00 0.00 0.00 92 1016.4
20260903023705 62 173 0.0 3.0 0.00 0.00 0.00 92 1016.4
20260903023605 62 173 1.0 3.0 0.00 0.00 0.00 92 1016.4
20260903023507 62 173 2.0 3.0 0.00 0.00 0.00 92 1016.4
20260903023404 62 173 2.0 3.0 0.00 0.00 0.00 92 1016.4
20260903023305 62 173 2.0 3.0 0.00 0.00 0.00 92 1016.4
20260903023104 62 173 2.0 2.0 0.00 0.00 0.00 92 1016.4
20260903023005 62 173 1.0 2.0 0.00 0.00 0.00 92 1016.4
20260903022906 62 173 1.0 2.0 0.00 0.00 0.00 92 1016.5
20260903022805 62 173 2.0 2.0 0.00 0.00 0.00 92 1016.5
20260903022705 62 173 1.0 2.0 0.00 0.00 0.00 91 1016.4
20260903022607 62 173 1.0 1.0 0.00 0.00 0.00 92 1016.5
20260903022504 62 173 0.0 1.0 0.00 0.00 0.00 92 1016.5
20260903022307 62 173 0.0 1.0 0.00 0.00 0.00 92 1016.5
20260903022204 62 173 0.0 1.0 0.00 0.00 0.00 92 1016.5
20260903022104 62 173 0.0 1.0 0.00 0.00 0.00 92 1016.4
20260903022009 62 173 0.0 1.0 0.00 0.00 0.00 92 1016.4
20260903021905 62 173 0.0 1.0 0.00 0.00 0.00 92 1016.4
20260903021707 62 173 0.0 1.0 0.00 0.00 0.00 92 1016.4
20260903021604 62 173 0.0 1.0 0.00 0.00 0.00 92 1016.5
20260903021505 62 173 0.0 1.0 0.00 0.00 0.00 92 1016.5
20260903021407 62 173 0.0 1.0 0.00 0.00 0.00 92 1016.4
20260903021304 62 173 0.0 1.0 0.00 0.00 0.00 91 1016.4
20260903021204 62 173 1.0 1.0 0.00 0.00 0.00 91 1016.4
20260903021107 63 173 1.0 1.0 0.00 0.00 0.00 91 1016.4
20260903021006 63 173 0.0 1.0 0.00 0.00 0.00 91 1016.4
20260903020904 63 173 0.0 1.0 0.00 0.00 0.00 91 1016.4
20260903020807 63 173 0.0 1.0 0.00 0.00 0.00 91 1016.4
20260903020404 63 173 0.0 1.0 0.00 0.00 0.00 91 1016.4
20260903020304 63 173 0.0 1.0 0.00 0.00 0.00 91 1016.4
20260903020206 63 173 0.0 1.0 0.00 0.00 0.00 91 1016.4
20260903020128 63 173 0.0 1.0 0.00 0.00 0.00 91 1016.4
20260903015907 63 173 0.0 1.0 0.00 0.00 0.00 91 1016.4
20260903015805 63 173 0.0 1.0 0.00 0.00 0.00 91 1016.4
20260903015704 63 173 0.0 1.0 0.00 0.00 0.00 92 1016.4
20260903015607 63 173 0.0 1.0 0.00 0.00 0.00 92 1016.4
20260903015504 63 173 0.0 1.0 0.00 0.00 0.00 92 1016.4
20260903015404 63 173 0.0 1.0 0.00 0.00 0.00 92 1016.4
20260903015204 63 173 0.0 2.0 0.00 0.00 0.00 91 1016.4
20260903015104 63 173 0.0 2.0 0.00 0.00 0.00 91 1016.4
20260903014804 63 173 0.0 2.0 0.00 0.00 0.00 91 1016.4
20260903014707 63 173 0.0 2.0 0.00 0.00 0.00 91 1016.5
20260903014604 63 173 0.0 2.0 0.00 0.00 0.00 91 1016.5
20260903014503 63 173 0.0 2.0 0.00 0.00 0.00 91 1016.5
20260903014305 63 173 0.0 2.0 0.00 0.00 0.00 91 1016.5
20260903014005 63 173 0.0 2.0 0.00 0.00 0.00 91 1016.5
20260903013604 63 173 0.0 2.0 0.00 0.00 0.00 90 1016.4
20260903013507 63 173 0.0 2.0 0.00 0.00 0.00 91 1016.4
20260903013404 63 173 0.0 2.0 0.00 0.00 0.00 92 1016.4
20260903013305 63 173 1.0 2.0 0.00 0.00 0.00 91 1016.3
20260903013207 63 173 2.0 2.0 0.00 0.00 0.00 91 1016.3
20260903013105 63 173 1.0 2.0 0.00 0.00 0.00 91 1016.4
20260903012907 64 173 1.0 2.0 0.00 0.00 0.00 91 1016.4
20260903012804 64 173 0.0 2.0 0.00 0.00 0.00 91 1016.4
20260903012704 64 173 0.0 2.0 0.00 0.00 0.00 91 1016.4
20260903012607 64 173 0.0 2.0 0.00 0.00 0.00 91 1016.4
20260903012504 64 173 0.0 2.0 0.00 0.00 0.00 91 1016.3
20260903012404 64 173 0.0 2.0 0.00 0.00 0.00 91 1016.3
20260903012307 64 173 0.0 2.0 0.00 0.00 0.00 91 1016.3
20260903012204 64 173 0.0 4.0 0.00 0.00 0.00 91 1016.3
20260903012104 64 173 1.0 4.0 0.00 0.00 0.00 91 1016.3
20260903012008 64 173 1.0 4.0 0.00 0.00 0.00 91 1016.3
20260903011804 64 173 1.0 4.0 0.00 0.00 0.00 91 1016.3
20260903011707 64 173 1.0 4.0 0.00 0.00 0.00 91 1016.3
20260903011604 64 173 0.0 4.0 0.00 0.00 0.00 91 1016.3
20260903011407 64 173 2.0 4.0 0.00 0.00 0.00 90 1016.3
20260903011305 64 173 1.0 4.0 0.00 0.00 0.00 90 1016.2
20260903011204 64 173 3.0 4.0 0.00 0.00 0.00 90 1016.3
20260903011107 64 173 3.0 4.0 0.00 0.00 0.00 90 1016.3
20260903011005 64 173 3.0 4.0 0.00 0.00 0.00 90 1016.2
20260903010904 64 173 3.0 4.0 0.00 0.00 0.00 90 1016.2
20260903010705 64 173 3.0 4.0 0.00 0.00 0.00 90 1016.2
20260903010604 64 173 3.0 3.0 0.00 0.00 0.00 90 1016.2
20260903010507 64 173 3.0 3.0 0.00 0.00 0.00 90 1016.2
20260903010404 64 173 1.0 3.0 0.00 0.00 0.00 90 1016.2
20260903010304 64 173 2.0 3.0 0.00 0.00 0.00 90 1016.3
20260903010207 64 173 2.0 2.0 0.00 0.00 0.00 90 1016.3
20260903010105 64 173 2.0 2.0 0.00 0.00 0.00 90 1016.3
20260903005907 64 173 1.0 2.0 0.00 0.00 0.00 90 1016.3
20260903005804 64 173 2.0 2.0 0.00 0.00 0.00 90 1016.2
20260903005705 64 173 1.0 2.0 0.00 0.00 0.00 90 1016.2
20260903005607 64 173 1.0 2.0 0.00 0.00 0.00 90 1016.2
20260903005504 64 173 1.0 2.0 0.00 0.00 0.00 90 1016.2
20260903005404 64 173 1.0 2.0 0.00 0.00 0.00 90 1016.2
20260903005205 64 173 2.0 2.0 0.00 0.00 0.00 90 1016.2
20260903005105 64 173 1.0 2.0 0.00 0.00 0.00 90 1016.2
20260903005008 64 173 1.0 2.0 0.00 0.00 0.00 90 1016.2
20260903004804 64 173 2.0 2.0 0.00 0.00 0.00 90 1016.2
20260903004708 64 173 2.0 2.0 0.00 0.00 0.00 90 1016.2
20260903004604 64 173 1.0 2.0 0.00 0.00 0.00 90 1016.2
20260903004504 64 173 1.0 2.0 0.00 0.00 0.00 90 1016.2
20260903004406 64 173 1.0 2.0 0.00 0.00 0.00 90 1016.1
20260903004304 64 173 2.0 2.0 0.00 0.00 0.00 90 1016.2
20260903004204 64 173 2.0 3.0 0.00 0.00 0.00 90 1016.2
20260903004107 65 173 2.0 3.0 0.00 0.00 0.00 90 1016.2
20260903003807 65 173 1.0 3.0 0.00 0.00 0.00 90 1016.1
20260903003704 65 173 1.0 3.0 0.00 0.00 0.00 90 1016.2
20260903003604 65 173 2.0 3.0 0.00 0.00 0.00 90 1016.2
20260903003507 65 173 1.0 3.0 0.00 0.00 0.00 90 1016.1
20260903003404 65 173 2.0 3.0 0.00 0.00 0.00 90 1016.1
20260903003305 65 173 2.0 4.0 0.00 0.00 0.00 90 1016.1
20260903003209 65 173 2.0 4.0 0.00 0.00 0.00 90 1016.1
20260903003104 65 173 2.0 4.0 0.00 0.00 0.00 90 1016.2
20260903003006 65 173 3.0 5.0 0.00 0.00 0.00 90 1016.1
20260903002607 65 173 3.0 5.0 0.00 0.00 0.00 90 1016.2
20260903002504 65 173 0.0 5.0 0.00 0.00 0.00 90 1016.2
20260903002405 65 173 1.0 5.0 0.00 0.00 0.00 90 1016.1
20260903002307 65 173 3.0 5.0 0.00 0.00 0.00 90 1016.2
20260903002204 65 173 3.0 5.0 0.00 0.00 0.00 90 1016.2
20260903002104 65 173 3.0 6.0 0.00 0.00 0.00 90 1016.2
20260903001904 65 173 4.0 6.0 0.00 0.00 0.00 90 1016.2
20260903001804 65 173 4.0 6.0 0.00 0.00 0.00 90 1016.2
20260903001707 65 173 4.0 6.0 0.00 0.00 0.00 90 1016.1
20260903001604 65 173 4.0 6.0 0.00 0.00 0.00 90 1016.1
20260903001504 65 173 5.0 6.0 0.00 0.00 0.00 89 1016.1
20260903001407 64 173 5.0 6.0 0.00 0.00 0.00 89 1016.1
20260903001305 64 173 4.0 6.0 0.00 0.00 0.00 89 1016.2
20260903001204 64 173 4.0 6.0 0.00 0.00 0.00 89 1016.2
20260903001107 64 173 6.0 6.0 0.00 0.00 0.00 89 1016.1
20260903000904 64 173 5.0 6.0 0.00 0.00 0.00 89 1016.2
20260903000604 64 167 4.0 5.0 0.00 0.00 0.00 89 1016.3
20260903000508 64 167 4.0 4.0 0.00 0.00 0.00 89 1016.2
20260903000404 64 76 3.0 4.0 0.00 0.00 0.00 89 1016.3
20260903000304 64 76 3.0 3.0 0.00 0.00 0.00 89 1016.3
20260903000131 64 76 1.0 3.0 0.00 0.00 0.00 89 1016.3
20260902235904 64 76 0.0 3.0 0.00 0.00 0.00 89 1016.3
20260902235806 64 76 1.0 4.0 0.00 0.00 0.00 89 1016.4
20260902235705 64 23 1.0 4.0 0.00 0.00 0.00 88 1016.3
20260902235604 64 23 1.0 4.0 0.00 0.00 0.00 88 1016.4
20260902235507 64 23 0.0 4.0 0.00 0.00 0.00 88 1016.4
20260902235404 64 23 1.0 4.0 0.00 0.00 0.00 88 1016.4
20260902235306 64 23 2.0 4.0 0.00 0.00 0.00 88 1016.4
20260902235206 64 23 2.0 4.0 0.00 0.00 0.00 88 1016.4
20260902235104 64 23 1.0 4.0 0.00 0.00 0.00 88 1016.4
20260902235005 64 23 1.0 4.0 0.00 0.00 0.00 88 1016.4
20260902234907 64 23 2.0 4.0 0.00 0.00 0.00 88 1016.5
20260902234804 64 23 2.0 4.0 0.00 0.00 0.00 88 1016.5
20260902234607 65 23 3.0 3.0 0.00 0.00 0.00 88 1016.4
20260902234506 65 23 2.0 3.0 0.00 0.00 0.00 88 1016.4
20260902234405 65 23 3.0 3.0 0.00 0.00 0.00 88 1016.5
20260902234307 65 23 2.0 3.0 0.00 0.00 0.00 88 1016.4
20260902234007 65 23 0.0 3.0 0.00 0.00 0.00 88 1016.4
20260902233903 65 23 0.0 3.0 0.00 0.00 0.00 88 1016.4
20260902233707 65 23 1.0 3.0 0.00 0.00 0.00 88 1016.4
20260902233604 65 23 2.0 3.0 0.00 0.00 0.00 88 1016.4
20260902233504 65 23 2.0 3.0 0.00 0.00 0.00 88 1016.4
20260902233407 65 23 2.0 3.0 0.00 0.00 0.00 88 1016.4
20260902233304 65 23 2.0 3.0 0.00 0.00 0.00 88 1016.4
20260902233204 65 23 2.0 3.0 0.00 0.00 0.00 88 1016.3
20260902233107 65 23 2.0 3.0 0.00 0.00 0.00 88 1016.4
20260902233005 65 23 2.0 3.0 0.00 0.00 0.00 88 1016.3
20260902232904 65 23 2.0 3.0 0.00 0.00 0.00 88 1016.3
20260902232605 65 23 2.0 4.0 0.00 0.00 0.00 88 1016.3
20260902232507 65 23 2.0 4.0 0.00 0.00 0.00 88 1016.3
20260902232207 65 23 1.0 4.0 0.00 0.00 0.00 88 1016.3
20260902232105 65 23 2.0 4.0 0.00 0.00 0.00 88 1016.3
20260902232004 65 23 2.0 4.0 0.00 0.00 0.00 88 1016.3
20260902231906 65 23 3.0 4.0 0.00 0.00 0.00 88 1016.3
20260902231804 65 23 2.0 4.0 0.00 0.00 0.00 88 1016.3
20260902231704 65 23 3.0 4.0 0.00 0.00 0.00 88 1016.3
20260902231607 65 23 3.0 4.0 0.00 0.00 0.00 88 1016.3
20260902231504 65 23 2.0 4.0 0.00 0.00 0.00 88 1016.3
20260902231404 65 23 2.0 4.0 0.00 0.00 0.00 88 1016.2
20260902231307 65 23 3.0 4.0 0.00 0.00 0.00 88 1016.3
20260902231204 65 23 2.0 4.0 0.00 0.00 0.00 88 1016.2
20260902231104 65 23 3.0 4.0 0.00 0.00 0.00 88 1016.2
20260902231009 65 23 4.0 4.0 0.00 0.00 0.00 88 1016.2
20260902230904 65 351 3.0 3.0 0.00 0.00 0.00 88 1016.2
20260902230804 65 291 1.0 3.0 0.00 0.00 0.00 88 1016.3
20260902230604 65 291 2.0 3.0 0.00 0.00 0.00 89 1016.2
20260902230406 65 291 1.0 3.0 0.00 0.00 0.00 89 1016.2
20260902230304 65 291 1.0 3.0 0.00 0.00 0.00 89 1016.2
20260902230107 65 291 0.0 3.0 0.00 0.00 0.00 88 1016.1
20260902230007 65 291 0.0 3.0 0.00 0.00 0.00 88 1016.1
20260902225904 65 291 1.0 3.0 0.00 0.00 0.00 88 1016.1
20260902225807 65 291 1.0 3.0 0.00 0.00 0.00 88 1016.1
20260902225704 65 291 2.0 3.0 0.00 0.00 0.00 88 1016.1
20260902225604 65 291 2.0 3.0 0.00 0.00 0.00 88 1016.1
20260902225507 65 291 2.0 3.0 0.00 0.00 0.00 88 1016.1
20260902225404 65 291 3.0 3.0 0.00 0.00 0.00 88 1016.1
20260902225306 65 291 2.0 3.0 0.00 0.00 0.00 88 1016.1
20260902225206 65 291 2.0 3.0 0.00 0.00 0.00 88 1016.1
20260902225104 65 291 3.0 3.0 0.00 0.00 0.00 88 1016.1
20260902225005 65 291 2.0 3.0 0.00 0.00 0.00 88 1016.2
20260902224907 65 291 2.0 3.0 0.00 0.00 0.00 88 1016.2
20260902224805 65 291 3.0 3.0 0.00 0.00 0.00 88 1016.1
20260902224704 65 291 2.0 3.0 0.00 0.00 0.00 88 1016.2
20260902224607 65 291 2.0 3.0 0.00 0.00 0.00 88 1016.2
20260902224504 65 291 2.0 3.0 0.00 0.00 0.00 88 1016.1
20260902224404 65 291 2.0 3.0 0.00 0.00 0.00 88 1016.1
20260902224307 65 291 2.0 3.0 0.00 0.00 0.00 88 1016.1
20260902224204 65 291 2.0 3.0 0.00 0.00 0.00 88 1016.1
20260902224104 65 291 1.0 3.0 0.00 0.00 0.00 87 1016.1
20260902224008 65 291 2.0 3.0 0.00 0.00 0.00 87 1016.1
20260902223904 65 291 2.0 3.0 0.00 0.00 0.00 87 1016.1
20260902223804 65 291 2.0 3.0 0.00 0.00 0.00 87 1016.1
20260902223604 65 291 3.0 3.0 0.00 0.00 0.00 87 1016.1
20260902223504 65 291 3.0 3.0 0.00 0.00 0.00 87 1016.1
20260902223406 65 291 3.0 3.0 0.00 0.00 0.00 87 1016.2
20260902223304 65 291 2.0 3.0 0.00 0.00 0.00 87 1016.1
20260902223204 65 291 3.0 3.0 0.00 0.00 0.00 87 1016.1
20260902223107 65 291 2.0 2.0 0.00 0.00 0.00 87 1016.1
20260902223005 65 291 2.0 2.0 0.00 0.00 0.00 87 1016.1
20260902222808 66 291 0.0 1.0 0.00 0.00 0.00 87 1016.1
20260902222704 66 291 0.0 1.0 0.00 0.00 0.00 87 1016.1
20260902222604 66 291 0.0 1.0 0.00 0.00 0.00 87 1016.1
20260902222506 66 291 0.0 1.0 0.00 0.00 0.00 87 1016.1
20260902222306 66 291 0.0 1.0 0.00 0.00 0.00 87 1016.1
20260902222207 66 291 0.0 1.0 0.00 0.00 0.00 87 1016.1
20260902222105 66 291 0.0 1.0 0.00 0.00 0.00 87 1016.1
20260902222005 66 291 0.0 1.0 0.00 0.00 0.00 87 1016.1
20260902221907 66 291 0.0 2.0 0.00 0.00 0.00 86 1016.2
20260902221805 66 291 1.0 2.0 0.00 0.00 0.00 86 1016.2
20260902221704 66 291 0.0 2.0 0.00 0.00 0.00 86 1016.2
20260902221606 66 291 0.0 3.0 0.00 0.00 0.00 86 1016.2
20260902221504 66 291 0.0 3.0 0.00 0.00 0.00 86 1016.2
20260902221404 66 291 0.0 3.0 0.00 0.00 0.00 86 1016.1
20260902221307 66 291 0.0 3.0 0.00 0.00 0.00 86 1016.2
20260902221204 66 291 0.0 3.0 0.00 0.00 0.00 86 1016.2
20260902221104 66 291 0.0 3.0 0.00 0.00 0.00 86 1016.1
20260902221007 66 291 1.0 3.0 0.00 0.00 0.00 86 1016.2
20260902220904 66 291 2.0 3.0 0.00 0.00 0.00 86 1016.1
20260902220804 66 291 1.0 3.0 0.00 0.00 0.00 86 1016.1
20260902220604 66 291 2.0 3.0 0.00 0.00 0.00 86 1016.1
20260902220505 66 291 3.0 3.0 0.00 0.00 0.00 86 1016.1
20260902220406 66 291 2.0 3.0 0.00 0.00 0.00 86 1016.1
20260902220304 66 291 3.0 3.0 0.00 0.00 0.00 86 1016.2
20260902220204 66 291 2.0 3.0 0.00 0.00 0.00 86 1016.1
20260902220129 66 291 2.0 3.0 0.00 0.00 0.00 86 1016.2
20260902220024 66 291 2.0 3.0 0.00 0.00 0.00 86 1016.2
20260902215905 66 291 2.0 3.0 0.00 0.00 0.00 86 1016.1
20260902215804 66 291 2.0 3.0 0.00 0.00 0.00 85 1016.1
20260902215605 66 291 2.0 2.0 0.00 0.00 0.00 85 1016.1
20260902215505 66 291 1.0 2.0 0.00 0.00 0.00 85 1016.1
20260902215408 66 291 0.0 2.0 0.00 0.00 0.00 85 1016.1
20260902215306 66 291 0.0 2.0 0.00 0.00 0.00 85 1016.1
20260902215107 66 291 1.0 3.0 0.00 0.00 0.00 85 1016.1
20260902214905 66 291 2.0 3.0 0.00 0.00 0.00 85 1016.1
20260902214808 66 291 2.0 3.0 0.00 0.00 0.00 85 1016.1
20260902214604 66 291 0.0 3.0 0.00 0.00 0.00 85 1016.1
20260902214404 66 291 1.0 3.0 0.00 0.00 0.00 85 1016.1
20260902214208 66 291 2.0 3.0 0.00 0.00 0.00 85 1016.1
20260902214006 66 291 2.0 3.0 0.00 0.00 0.00 85 1016.1
20260902213907 66 291 2.0 3.0 0.00 0.00 0.00 85 1016.1
20260902213805 66 291 2.0 3.0 0.00 0.00 0.00 85 1016.1
20260902213705 66 291 1.0 3.0 0.00 0.00 0.00 85 1016.0
20260902213505 66 291 1.0 3.0 0.00 0.00 0.00 85 1016.0
20260902213405 66 291 2.0 3.0 0.00 0.00 0.00 85 1016.0
20260902213308 67 291 2.0 3.0 0.00 0.00 0.00 85 1016.0
20260902213205 67 291 3.0 3.0 0.00 0.00 0.00 84 1016.0
20260902212905 67 36 3.0 3.0 0.00 0.00 0.00 84 1015.9
20260902212805 67 36 2.0 3.0 0.00 0.00 0.00 84 1015.9
20260902212708 67 36 2.0 2.0 0.00 0.00 0.00 84 1015.9
20260902212505 67 36 1.0 2.0 0.00 0.00 0.00 84 1016.0
20260902212408 67 36 1.0 1.0 0.00 0.00 0.00 84 1015.9
20260902212306 67 36 0.0 1.0 0.00 0.00 0.00 84 1015.9
20260902212205 67 36 0.0 1.0 0.00 0.00 0.00 84 1016.0
20260902212108 67 36 0.0 2.0 0.00 0.00 0.00 84 1015.9
20260902211905 67 36 0.0 2.0 0.00 0.00 0.00 83 1015.9
20260902211807 67 36 0.0 2.0 0.00 0.00 0.00 83 1015.9
20260902211605 67 36 0.0 2.0 0.00 0.00 0.00 83 1015.8
20260902211508 67 36 0.0 3.0 0.00 0.00 0.00 83 1015.8
20260902211405 67 36 0.0 3.0 0.00 0.00 0.00 83 1015.8
20260902211306 67 36 0.0 3.0 0.00 0.00 0.00 83 1015.8
20260902211207 67 36 0.0 3.0 0.00 0.00 0.00 82 1015.8
20260902211006 67 36 2.0 3.0 0.00 0.00 0.00 82 1015.8
20260902210908 68 36 2.0 3.0 0.00 0.00 0.00 82 1015.8
20260902210806 68 36 2.0 3.0 0.00 0.00 0.00 82 1015.8
20260902210705 68 36 2.0 3.0 0.00 0.00 0.00 82 1015.8
20260902210505 68 36 2.0 2.0 0.00 0.00 0.00 82 1015.7
20260902210404 68 36 1.0 1.0 0.00 0.00 0.00 82 1015.8
20260902210308 68 36 1.0 1.0 0.00 0.00 0.00 82 1015.7
20260902210205 68 36 1.0 1.0 0.00 0.00 0.00 82 1015.7
20260902210105 68 36 1.0 1.0 0.00 0.00 0.00 82 1015.7
20260902205905 68 36 0.0 1.0 0.00 0.00 0.00 82 1015.7
20260902205805 68 36 0.0 1.0 0.00 0.00 0.00 82 1015.7
20260902205708 68 36 0.0 1.0 0.00 0.00 0.00 82 1015.7
20260902205605 68 36 0.0 1.0 0.00 0.00 0.00 82 1015.7
20260902205306 68 36 0.0 2.0 0.00 0.00 0.00 82 1015.6
20260902205206 68 36 0.0 2.0 0.00 0.00 0.00 81 1015.6
20260902205006 68 36 0.0 2.0 0.00 0.00 0.00 81 1015.5
20260902204905 68 36 0.0 2.0 0.00 0.00 0.00 81 1015.5
20260902204809 68 36 0.0 2.0 0.00 0.00 0.00 81 1015.5
20260902204706 68 36 0.0 2.0 0.00 0.00 0.00 81 1015.5
20260902204605 68 36 0.0 3.0 0.00 0.00 0.00 81 1015.6
20260902204508 68 36 0.0 3.0 0.00 0.00 0.00 80 1015.6
20260902204406 68 36 1.0 3.0 0.00 0.00 0.00 80 1015.5
20260902204208 69 36 2.0 3.0 0.00 0.00 0.00 80 1015.6
20260902204105 69 36 1.0 4.0 0.00 0.00 0.00 80 1015.5
20260902204006 69 36 1.0 4.0 0.00 0.00 0.00 80 1015.6
20260902203907 69 36 2.0 4.0 0.00 0.00 0.00 80 1015.6
20260902203806 69 36 1.0 4.0 0.00 0.00 0.00 80 1015.6
20260902203704 69 36 1.0 4.0 0.00 0.00 0.00 80 1015.6
20260902203505 69 36 3.0 4.0 0.00 0.00 0.00 80 1015.5
20260902203405 69 36 2.0 4.0 0.00 0.00 0.00 80 1015.5
20260902203309 69 36 3.0 4.0 0.00 0.00 0.00 80 1015.6
20260902203205 69 36 3.0 4.0 0.00 0.00 0.00 80 1015.6
20260902202907 69 36 3.0 4.0 0.00 0.00 0.00 80 1015.6
20260902202806 69 36 3.0 3.0 0.00 0.00 0.00 80 1015.6
20260902202708 69 36 2.0 3.0 0.00 0.00 0.00 80 1015.6
20260902202606 69 36 2.0 3.0 0.00 0.00 0.00 80 1015.6
20260902202506 69 36 3.0 3.0 0.00 0.00 0.00 80 1015.6
20260902202408 69 36 2.0 3.0 0.00 0.00 0.00 80 1015.6
20260902202306 69 36 2.0 3.0 0.00 0.00 0.00 80 1015.6
20260902202109 69 36 2.0 3.0 0.00 0.00 0.00 79 1015.6
20260902202007 69 36 1.0 3.0 0.00 0.00 0.00 79 1015.6
20260902201905 70 36 2.0 3.0 0.00 0.00 0.00 79 1015.5
20260902201809 70 36 2.0 3.0 0.00 0.00 0.00 79 1015.6
20260902201705 70 36 2.0 3.0 0.00 0.00 0.00 79 1015.5
20260902201508 70 36 2.0 3.0 0.00 0.00 0.00 79 1015.6
20260902201406 70 36 2.0 3.0 0.00 0.00 0.00 79 1015.6
20260902201208 70 36 2.0 3.0 0.00 0.00 0.00 79 1015.6
20260902201106 70 36 3.0 3.0 0.00 0.00 0.00 79 1015.5
20260902201012 70 36 2.0 3.0 0.00 0.00 0.00 79 1015.5
20260902200907 70 36 0.0 3.0 0.00 0.00 0.00 78 1015.5
20260902200805 70 36 0.0 3.0 0.00 0.00 0.00 78 1015.5
20260902200705 70 36 0.0 3.0 0.00 0.00 0.00 78 1015.5
20260902200406 70 36 2.0 3.0 0.00 0.00 0.00 77 1015.5
20260902200310 70 36 2.0 3.0 0.00 0.00 0.00 77 1015.4
20260902195905 70 36 3.0 3.0 0.00 0.00 0.00 77 1015.4
20260902195805 70 36 3.0 4.0 0.00 0.00 0.00 77 1015.4
20260902195707 71 36 3.0 4.0 0.00 0.00 0.00 77 1015.4
20260902195605 71 36 2.0 4.0 0.00 0.00 0.00 77 1015.4
20260902195505 71 36 1.0 4.0 0.00 0.00 0.00 78 1015.4
20260902195306 71 36 2.0 4.0 0.00 0.00 0.00 78 1015.4
20260902195205 71 36 2.0 4.0 0.00 0.00 0.00 77 1015.4
20260902195109 71 36 2.0 4.0 0.00 0.00 0.00 77 1015.5
20260902194905 71 36 2.0 4.0 0.00 0.00 0.00 78 1015.4
20260902194808 71 36 3.0 4.0 0.00 0.00 0.00 78 1015.4
20260902194708 71 36 4.0 4.0 0.00 0.00 0.00 78 1015.4
20260902194509 71 286 3.0 4.0 0.00 0.00 0.00 78 1015.4
20260902194406 71 286 3.0 3.0 0.00 0.00 0.00 78 1015.4
20260902194306 71 286 3.0 3.0 0.00 0.00 0.00 78 1015.4
20260902194209 71 286 2.0 3.0 0.00 0.00 0.00 78 1015.4
20260902194106 71 286 2.0 3.0 0.00 0.00 0.00 77 1015.4
20260902193907 71 286 1.0 3.0 0.00 0.00 0.00 77 1015.4
20260902193804 71 286 0.0 3.0 0.00 0.00 0.00 77 1015.4
20260902193609 71 286 1.0 3.0 0.00 0.00 0.00 77 1015.4
20260902193504 72 286 0.0 3.0 0.00 0.00 0.00 76 1015.4
20260902193307 72 286 1.0 3.0 0.00 0.00 0.00 76 1015.4
20260902193205 72 286 1.0 3.0 0.00 0.00 0.00 76 1015.4
20260902193105 72 286 2.0 3.0 0.00 0.00 0.00 76 1015.3
20260902193009 72 286 1.0 3.0 0.00 0.00 0.00 75 1015.3
20260902192904 72 286 2.0 3.0 0.00 0.00 0.00 75 1015.3
20260902192804 72 286 3.0 3.0 0.00 0.00 0.00 75 1015.3
20260902192707 72 286 1.0 2.0 0.00 0.00 0.00 75 1015.3
20260902192606 72 286 1.0 3.0 0.00 0.00 0.00 75 1015.4
20260902192505 72 286 1.0 3.0 0.00 0.00 0.00 75 1015.4
20260902192407 72 286 2.0 3.0 0.00 0.00 0.00 75 1015.4
20260902192307 72 286 1.0 3.0 0.00 0.00 0.00 75 1015.4
20260902192107 72 286 1.0 3.0 0.00 0.00 0.00 75 1015.3
20260902192006 72 286 1.0 3.0 0.00 0.00 0.00 75 1015.4
20260902191807 72 286 1.0 3.0 0.00 0.00 0.00 75 1015.4
20260902191705 72 286 1.0 3.0 0.00 0.00 0.00 75 1015.3
20260902191607 72 286 2.0 3.0 0.00 0.00 0.00 75 1015.4
20260902191509 72 286 2.0 3.0 0.00 0.00 0.00 75 1015.3
20260902191404 72 213 3.0 3.0 0.00 0.00 0.00 75 1015.3
20260902191306 73 213 1.0 3.0 0.00 0.00 0.00 75 1015.3
20260902191207 73 213 2.0 3.0 0.00 0.00 0.00 75 1015.3
20260902191106 73 213 2.0 3.0 0.00 0.00 0.00 75 1015.3
20260902190908 73 213 2.0 3.0 0.00 0.00 0.00 75 1015.3
20260902190805 73 213 2.0 3.0 0.00 0.00 0.00 75 1015.3
20260902190608 73 213 3.0 3.0 0.00 0.00 0.00 74 1015.2
20260902190505 73 213 3.0 3.0 0.00 0.00 0.00 74 1015.3
20260902190405 73 213 2.0 3.0 0.00 0.00 0.00 74 1015.2
20260902190308 73 213 2.0 3.0 0.00 0.00 0.00 75 1015.2
20260902190205 73 213 1.0 3.0 0.00 0.00 0.00 75 1015.3
20260902190105 73 213 1.0 4.0 0.00 0.00 0.00 75 1015.2
20260902190011 73 213 1.0 4.0 0.00 0.00 0.00 75 1015.2
20260902185904 73 213 0.0 4.0 0.00 0.00 0.00 75 1015.2
20260902185707 73 213 1.0 4.0 0.00 0.00 0.00 74 1015.2
20260902185606 73 213 2.0 4.0 0.00 0.00 0.00 74 1015.2
20260902185505 73 213 2.0 4.0 0.00 0.00 0.00 74 1015.2
20260902185408 73 213 2.0 4.0 0.00 0.00 0.00 74 1015.1
20260902185207 73 213 3.0 4.0 0.00 0.00 0.00 74 1015.1
20260902185108 73 213 3.0 4.0 0.00 0.00 0.00 73 1015.1
20260902185005 74 138 4.0 4.0 0.00 0.00 0.00 73 1015.0
20260902184906 74 138 3.0 4.0 0.00 0.00 0.00 73 1015.0
20260902184808 74 138 3.0 3.0 0.00 0.00 0.00 73 1015.0
20260902184706 74 138 3.0 3.0 0.00 0.00 0.00 73 1015.0
20260902184605 74 138 2.0 3.0 0.00 0.00 0.00 73 1015.0
20260902184405 74 138 3.0 3.0 0.00 0.00 0.00 72 1014.9
20260902184305 74 138 3.0 3.0 0.00 0.00 0.00 72 1014.9
20260902184207 74 138 2.0 2.0 0.00 0.00 0.00 71 1014.9
20260902184005 75 138 1.0 2.0 0.00 0.00 0.00 71 1014.9
20260902183908 75 138 1.0 2.0 0.00 0.00 0.00 71 1014.9
20260902183805 75 138 1.0 2.0 0.00 0.00 0.00 71 1014.9
20260902183608 75 138 1.0 1.0 0.00 0.00 0.00 71 1014.9
20260902183506 75 138 1.0 1.0 0.00 0.00 0.00 71 1014.9
20260902183405 75 138 0.0 1.0 0.00 0.00 0.00 70 1014.9
20260902183309 75 138 0.0 1.0 0.00 0.00 0.00 70 1014.9
20260902183206 75 138 0.0 1.0 0.00 0.00 0.00 70 1014.9
20260902183105 75 138 0.0 2.0 0.00 0.00 0.00 70 1014.9
20260902183009 76 138 0.0 2.0 0.00 0.00 0.00 70 1014.9
20260902182906 76 138 0.0 2.0 0.00 0.00 0.00 70 1014.9
20260902182805 76 138 0.0 2.0 0.00 0.00 0.00 69 1014.9
20260902182708 76 138 0.0 2.0 0.00 0.00 0.00 70 1014.9
20260902182605 76 138 0.0 2.0 0.00 0.00 0.00 69 1014.9
20260902182504 76 138 0.0 2.0 0.00 0.00 0.00 69 1014.8
20260902182306 77 138 1.0 2.0 0.00 0.00 0.00 68 1014.8
20260902182204 77 138 1.0 3.0 0.00 0.00 0.00 68 1014.8
20260902182005 77 138 1.0 3.0 0.00 0.00 0.00 67 1014.8
20260902181905 77 138 1.0 3.0 0.00 0.00 0.00 66 1014.8
20260902181808 77 138 1.0 3.0 0.00 0.00 0.00 66 1014.7
20260902181705 77 138 2.0 3.0 0.00 0.00 0.00 65 1014.7
20260902181607 78 138 2.0 3.0 0.00 0.00 0.00 65 1014.8
20260902181405 78 138 2.0 3.0 0.00 0.00 0.00 65 1014.7
20260902181305 78 138 2.0 4.0 0.00 0.00 0.00 64 1014.7
20260902181208 78 138 2.0 4.0 0.00 0.00 0.00 64 1014.8
20260902181105 78 138 3.0 4.0 0.00 0.00 0.00 64 1014.7
20260902181006 78 138 3.0 4.0 0.00 0.00 0.00 64 1014.7
20260902180907 78 138 2.0 4.0 0.00 0.00 0.00 64 1014.7
20260902180805 78 138 2.0 4.0 0.00 0.00 0.00 64 1014.7
20260902180705 78 138 2.0 4.0 0.00 0.00 0.00 64 1014.6
20260902180505 79 138 2.0 4.0 0.00 0.00 0.00 64 1014.6
20260902180405 79 138 3.0 4.0 0.00 0.00 0.00 63 1014.6
20260902180307 79 138 2.0 4.0 0.00 0.00 0.00 63 1014.6
20260902180134 79 138 2.0 4.0 0.00 0.00 0.00 63 1014.6
20260902175904 79 138 2.0 4.0 0.00 0.00 0.00 63 1014.7
20260902175805 79 138 3.0 4.0 0.00 0.00 0.00 63 1014.8
20260902175707 79 138 3.0 4.0 0.00 0.00 0.00 63 1014.7
20260902175408 79 138 4.0 5.0 0.00 0.00 0.00 62 1014.8
20260902175307 79 138 3.0 5.0 0.00 0.00 0.00 63 1014.7
20260902175205 79 138 3.0 5.0 0.00 0.00 0.00 63 1014.8
20260902175005 80 138 4.0 5.0 0.00 0.00 0.00 62 1014.7
20260902174905 80 138 3.0 5.0 0.00 0.00 0.00 62 1014.6
20260902174808 80 138 4.0 5.0 0.00 0.00 0.00 62 1014.6
20260902174705 80 138 2.0 5.0 0.00 0.00 0.00 62 1014.6
20260902174605 80 138 4.0 5.0 0.00 0.00 0.00 62 1014.6
20260902174508 80 138 4.0 5.0 0.00 0.00 0.00 62 1014.6
20260902174306 80 138 4.0 6.0 0.00 0.00 0.00 62 1014.6
20260902174207 80 138 4.0 6.0 0.00 0.00 0.00 62 1014.5
20260902174105 81 138 5.0 6.0 0.00 0.00 0.00 61 1014.6
20260902174006 81 138 4.0 6.0 0.00 0.00 0.00 61 1014.6
20260902173908 81 138 4.0 6.0 0.00 0.00 0.00 61 1014.6
20260902173805 81 138 5.0 6.0 0.00 0.00 0.00 61 1014.6
20260902173705 81 138 4.0 6.0 0.00 0.00 0.00 61 1014.6
20260902173607 81 138 5.0 6.0 0.00 0.00 0.00 61 1014.6
20260902173505 81 138 5.0 6.0 0.00 0.00 0.00 61 1014.5
20260902173404 81 126 4.0 6.0 0.00 0.00 0.00 61 1014.5
20260902173105 82 119 4.0 6.0 0.00 0.00 0.00 60 1014.5
20260902173010 82 119 3.0 6.0 0.00 0.00 0.00 60 1014.5
20260902172905 82 119 3.0 6.0 0.00 0.00 0.00 60 1014.5
20260902172706 82 119 4.0 6.0 0.00 0.00 0.00 60 1014.5
20260902172505 83 132 6.0 7.0 0.00 0.00 0.00 59 1014.4
20260902172407 83 115 4.0 7.0 0.00 0.00 0.00 59 1014.4
20260902172308 83 120 3.0 7.0 0.00 0.00 0.00 59 1014.4
20260902172205 83 112 4.0 7.0 0.00 0.00 0.00 58 1014.4
20260902172107 83 105 4.0 7.0 0.00 0.00 0.00 58 1014.4
20260902172006 83 88 3.0 7.0 0.00 0.00 0.00 57 1014.4
20260902171904 83 119 2.0 7.0 0.00 0.00 0.00 58 1014.4
20260902171808 83 93 5.0 7.0 0.00 0.00 0.00 57 1014.4
20260902171705 84 97 3.0 7.0 0.00 0.00 0.00 57 1014.4
20260902171604 84 99 3.0 7.0 0.00 0.00 0.00 57 1014.4
20260902171507 84 88 3.0 7.0 0.00 0.00 0.00 56 1014.4
20260902171405 84 103 2.0 7.0 0.00 0.00 0.00 56 1014.4
20260902171304 84 79 3.0 7.0 0.00 0.00 0.00 56 1014.4
20260902171207 84 110 2.0 7.0 0.00 0.00 0.00 56 1014.4
20260902171105 84 104 2.0 7.0 0.00 0.00 0.00 56 1014.4
20260902170908 85 104 2.0 7.0 0.00 0.00 0.00 55 1014.4
20260902170805 85 125 6.0 7.0 0.00 0.00 0.00 55 1014.4
20260902170705 85 127 5.0 7.0 0.00 0.00 0.00 55 1014.4
20260902170608 85 109 3.0 8.0 0.00 0.00 0.00 55 1014.4
20260902170505 85 123 4.0 8.0 0.00 0.00 0.00 55 1014.5
20260902170405 85 118 4.0 8.0 0.00 0.00 0.00 55 1014.4
20260902170307 86 121 4.0 8.0 0.00 0.00 0.00 55 1014.4
20260902170104 86 115 3.0 8.0 0.00 0.00 0.00 54 1014.4
20260902165805 86 123 4.0 8.0 0.00 0.00 0.00 54 1014.4
20260902165708 86 101 6.0 8.0 0.00 0.00 0.00 55 1014.3
20260902165605 86 106 7.0 7.0 0.00 0.00 0.00 54 1014.4
20260902165505 86 102 3.0 5.0 0.00 0.00 0.00 54 1014.4
20260902165407 86 102 2.0 5.0 0.00 0.00 0.00 54 1014.4
20260902165308 87 119 4.0 5.0 0.00 0.00 0.00 54 1014.4
20260902165108 87 108 3.0 9.0 0.00 0.00 0.00 54 1014.4
20260902164904 87 85 2.0 9.0 0.00 0.00 0.00 54 1014.4
20260902164808 87 116 2.0 9.0 0.00 0.00 0.00 53 1014.4
20260902164705 87 111 5.0 9.0 0.00 0.00 0.00 54 1014.4
20260902164605 87 115 3.0 9.0 0.00 0.00 0.00 53 1014.4
20260902164508 87 121 4.0 9.0 0.00 0.00 0.00 52 1014.4
20260902164405 87 136 4.0 9.0 0.00 0.00 0.00 52 1014.3
20260902164304 87 112 5.0 9.0 0.00 0.00 0.00 52 1014.3
20260902164207 87 94 6.0 9.0 0.00 0.00 0.00 53 1014.4
20260902164106 87 121 4.0 8.0 0.00 0.00 0.00 52 1014.4
20260902164006 87 93 2.0 8.0 0.00 0.00 0.00 52 1014.3
20260902163907 87 93 2.0 8.0 0.00 0.00 0.00 51 1014.4
20260902163805 87 107 3.0 8.0 0.00 0.00 0.00 51 1014.4
20260902163704 87 82 7.0 8.0 0.00 0.00 0.00 52 1014.4
20260902163607 87 88 6.0 7.0 0.00 0.00 0.00 52 1014.4
20260902163505 88 96 5.0 7.0 0.00 0.00 0.00 51 1014.4
20260902163405 88 77 3.0 7.0 0.00 0.00 0.00 52 1014.4
20260902163307 88 122 3.0 8.0 0.00 0.00 0.00 52 1014.4
20260902163205 88 103 2.0 8.0 0.00 0.00 0.00 52 1014.5
20260902163104 88 113 2.0 8.0 0.00 0.00 0.00 52 1014.5
20260902163010 88 113 0.0 8.0 0.00 0.00 0.00 51 1014.5
20260902162905 88 113 2.0 8.0 0.00 0.00 0.00 52 1014.5
20260902162804 88 119 4.0 8.0 0.00 0.00 0.00 51 1014.5
20260902162709 88 123 7.0 8.0 0.00 0.00 0.00 51 1014.5
20260902162605 88 103 4.0 8.0 0.00 0.00 0.00 50 1014.6
20260902162504 88 103 3.0 9.0 0.00 0.00 0.00 51 1014.6
20260902162307 88 93 7.0 9.0 0.00 0.00 0.00 50 1014.6
20260902162109 88 51 4.0 10.0 0.00 0.00 0.00 51 1014.6
20260902162006 88 58 3.0 10.0 0.00 0.00 0.00 52 1014.6
20260902161905 87 110 2.0 10.0 0.00 0.00 0.00 51 1014.6
20260902161807 87 98 6.0 10.0 0.00 0.00 0.00 51 1014.6
20260902161705 87 81 5.0 10.0 0.00 0.00 0.00 52 1014.5
20260902161606 87 74 4.0 10.0 0.00 0.00 0.00 52 1014.5
20260902161507 87 91 8.0 10.0 0.00 0.00 0.00 52 1014.5
20260902161304 87 76 5.0 10.0 0.00 0.00 0.00 52 1014.5
20260902161207 86 67 5.0 9.0 0.00 0.00 0.00 53 1014.5
20260902161105 86 90 7.0 9.0 0.00 0.00 0.00 53 1014.5
20260902161005 86 70 3.0 9.0 0.00 0.00 0.00 53 1014.5
20260902160907 86 67 9.0 9.0 0.00 0.00 0.00 54 1014.5
20260902160804 85 81 7.0 8.0 0.00 0.00 0.00 55 1014.6
20260902160705 85 98 5.0 8.0 0.00 0.00 0.00 54 1014.6
20260902160607 85 70 5.0 8.0 0.00 0.00 0.00 55 1014.6
20260902160505 85 75 4.0 7.0 0.00 0.00 0.00 55 1014.8
20260902160404 85 84 7.0 7.0 0.00 0.00 0.00 54 1014.8
20260902160307 85 78 7.0 7.0 0.00 0.00 0.00 54 1014.8
20260902160205 85 87 3.0 7.0 0.00 0.00 0.00 54 1014.9
20260902160118 85 78 5.0 7.0 0.00 0.00 0.00 54 1014.9
20260902160011 85 78 5.0 7.0 0.00 0.00 0.00 54 1014.9
20260902155805 85 76 4.0 6.0 0.00 0.00 0.00 54 1014.8
20260902155708 85 65 3.0 6.0 0.00 0.00 0.00 54 1014.9
20260902155605 86 94 6.0 6.0 0.00 0.00 0.00 53 1014.9
20260902155505 86 57 4.0 7.0 0.00 0.00 0.00 53 1014.9
20260902155407 86 57 3.0 7.0 0.00 0.00 0.00 53 1015.0
20260902155307 86 84 3.0 7.0 0.00 0.00 0.00 53 1014.9
20260902155205 86 75 5.0 7.0 0.00 0.00 0.00 53 1014.9
20260902155108 86 68 5.0 7.0 0.00 0.00 0.00 52 1014.9
20260902155005 86 61 2.0 7.0 0.00 0.00 0.00 52 1014.9
20260902154904 86 72 4.0 10.0 0.00 0.00 0.00 52 1014.9
20260902154808 86 66 4.0 10.0 0.00 0.00 0.00 52 1014.8
20260902154706 86 61 7.0 10.0 0.00 0.00 0.00 53 1014.8
20260902154603 87 38 4.0 10.0 0.00 0.00 0.00 51 1014.8
20260902154508 87 46 5.0 10.0 0.00 0.00 0.00 52 1014.9
20260902154405 87 30 5.0 10.0 0.00 0.00 0.00 51 1014.9
20260902154305 87 53 6.0 10.0 0.00 0.00 0.00 51 1014.9
20260902154207 87 43 4.0 10.0 0.00 0.00 0.00 51 1014.9
20260902154105 87 58 5.0 10.0 0.00 0.00 0.00 51 1014.9
20260902154004 88 67 7.0 10.0 0.00 0.00 0.00 51 1014.8
20260902153804 88 40 5.0 10.0 0.00 0.00 0.00 50 1014.8
20260902153608 88 51 3.0 10.0 0.00 0.00 0.00 50 1014.8
20260902153506 88 28 5.0 10.0 0.00 0.00 0.00 49 1014.8
20260902153405 89 28 3.0 10.0 0.00 0.00 0.00 50 1014.8
20260902153307 89 26 4.0 10.0 0.00 0.00 0.00 49 1014.7
20260902153205 89 33 7.0 10.0 0.00 0.00 0.00 48 1014.8
20260902153105 89 25 5.0 10.0 0.00 0.00 0.00 48 1014.8
20260902153009 89 42 5.0 13.0 0.00 0.00 0.00 47 1014.8
20260902152905 90 33 8.0 13.0 0.00 0.00 0.00 48 1014.7
20260902152805 90 31 4.0 13.0 0.00 0.00 0.00 48 1014.7
20260902152707 90 47 2.0 13.0 0.00 0.00 0.00 47 1014.7
20260902152606 90 351 4.0 13.0 0.00 0.00 0.00 48 1014.7
20260902152308 90 38 6.0 13.0 0.00 0.00 0.00 49 1014.7
20260902152205 89 65 9.0 13.0 0.00 0.00 0.00 49 1014.6
20260902152108 89 128 5.0 13.0 0.00 0.00 0.00 49 1014.7
20260902152005 89 88 9.0 13.0 0.00 0.00 0.00 50 1014.7
20260902151904 89 110 4.0 13.0 0.00 0.00 0.00 50 1014.7
20260902151807 89 76 7.0 13.0 0.00 0.00 0.00 50 1014.8
20260902151706 89 106 5.0 13.0 0.00 0.00 0.00 49 1014.8
20260902151605 89 83 9.0 13.0 0.00 0.00 0.00 49 1014.8
20260902151306 89 61 4.0 13.0 0.00 0.00 0.00 49 1014.8
20260902151207 89 119 3.0 13.0 0.00 0.00 0.00 50 1014.8
20260902151105 89 78 11.0 13.0 0.00 0.00 0.00 49 1014.8
20260902151006 89 76 5.0 13.0 0.00 0.00 0.00 49 1014.8
20260902150908 89 77 12.0 12.0 0.00 0.00 0.00 48 1014.8
20260902150804 89 35 6.0 10.0 0.00 0.00 0.00 49 1014.8
20260902150704 89 42 7.0 10.0 0.00 0.00 0.00 48 1014.8
20260902150607 89 24 8.0 13.0 0.00 0.00 0.00 48 1014.8
20260902150505 89 41 7.0 13.0 0.00 0.00 0.00 48 1014.8
20260902150405 89 26 6.0 15.0 0.00 0.00 0.00 49 1014.8
20260902150307 89 55 6.0 15.0 0.00 0.00 0.00 49 1014.8
20260902150205 89 74 7.0 15.0 0.00 0.00 0.00 48 1014.8
20260902145904 89 31 7.0 15.0 0.00 0.00 0.00 48 1014.8
20260902145605 89 30 10.0 15.0 0.00 0.00 0.00 48 1014.7
20260902145505 89 82 8.0 15.0 0.00 0.00 0.00 48 1014.7
20260902145407 89 87 9.0 15.0 0.00 0.00 0.00 48 1014.7
20260902145306 89 73 12.0 14.0 0.00 0.00 0.00 47 1014.7
20260902145205 89 38 6.0 14.0 0.00 0.00 0.00 47 1014.7
20260902145107 89 46 11.0 14.0 0.00 0.00 0.00 47 1014.7
20260902144904 89 32 7.0 14.0 0.00 0.00 0.00 48 1014.6
20260902144807 89 46 10.0 14.0 0.00 0.00 0.00 47 1014.7
20260902144508 90 40 7.0 14.0 0.00 0.00 0.00 47 1014.6
20260902144404 90 29 9.0 16.0 0.00 0.00 0.00 47 1014.6
20260902144305 90 9 7.0 16.0 0.00 0.00 0.00 47 1014.6
20260902144206 90 27 9.0 16.0 0.00 0.00 0.00 47 1014.6
20260902144104 90 30 5.0 16.0 0.00 0.00 0.00 47 1014.6
20260902143907 90 36 8.0 13.0 0.00 0.00 0.00 47 1014.5
20260902143806 90 16 9.0 13.0 0.00 0.00 0.00 47 1014.5